Time,TemperatureF,DewpointF,PressureIn,WindDirection,WindDirectionDegrees,WindSpeedMPH,WindSpeedGustMPH,Humidity,HourlyPrecipIn,Conditions,Clouds,dailyrainin,SolarRadiationWatts/m^2,SoftwareType,DateUTC
2013-05-26 00:01:00,52.2,38.7,30.01,SE,124,0.0,5.0,60,0.00,,,0.00,0,Wunderground v.1.15,2013-05-26 05:01:00,
2013-05-26 00:02:00,52.2,38.7,30.01,ESE,122,3.0,5.0,60,0.00,,,0.00,0,Wunderground v.1.15,2013-05-26 05:02:00,
2013-05-26 00:03:00,52.2,38.7,30.00,ESE,123,0.0,7.0,60,0.00,,,0.00,0,Wunderground v.1.15,2013-05-26 05:03:00,
2013-05-26 00:07:00,52.2,38.7,30.01,ESE,108,1.0,7.0,60,0.00,,,0.00,0,Wunderground v.1.15,2013-05-26 05:07:00,
2013-05-26 00:08:00,52.1,38.6,30.00,ESE,118,1.0,7.0,60,0.00,,,0.00,0,Wunderground v.1.15,2013-05-26 05:08:00,
2013-05-26 00:09:00,52.1,38.6,30.00,ESE,118,2.0,7.0,60,0.00,,,0.00,0,Wunderground v.1.15,2013-05-26 05:09:00,
2013-05-26 00:12:00,52.1,38.6,30.00,ESE,119,0.0,6.0,60,0.00,,,0.00,0,Wunderground v.1.15,2013-05-26 05:12:00,
2013-05-26 00:13:00,52.1,38.6,30.00,ESE,119,2.0,7.0,60,0.00,,,0.00,0,Wunderground v.1.15,2013-05-26 05:13:00,
2013-05-26 00:14:00,52.0,38.5,30.00,ESE,119,1.0,7.0,60,0.00,,,0.00,0,Wunderground v.1.15,2013-05-26 05:14:00,
2013-05-26 00:17:00,52.0,38.5,30.00,SE,140,2.0,12.0,60,0.00,,,0.00,0,Wunderground v.1.15,2013-05-26 05:17:00,
2013-05-26 00:18:00,52.0,38.5,30.00,SE,140,4.0,12.0,60,0.00,,,0.00,0,Wunderground v.1.15,2013-05-26 05:18:00,
2013-05-26 00:19:00,52.0,38.5,30.00,ESE,105,1.0,2.0,60,0.00,,,0.00,0,Wunderground v.1.15,2013-05-26 05:19:00,
2013-05-26 00:22:00,51.9,38.4,30.00,ESE,119,3.0,9.0,60,0.00,,,0.00,0,Wunderground v.1.15,2013-05-26 05:22:00,
2013-05-26 00:23:00,51.9,38.4,30.00,ESE,119,0.0,9.0,60,0.00,,,0.00,0,Wunderground v.1.15,2013-05-26 05:23:00,
2013-05-26 00:25:00,51.9,38.4,30.00,East,93,0.0,9.0,60,0.00,,,0.00,0,Wunderground v.1.15,2013-05-26 05:25:00,
2013-05-26 00:27:00,51.9,38.4,29.99,East,92,2.0,9.0,60,0.00,,,0.00,0,Wunderground v.1.15,2013-05-26 05:27:00,
2013-05-26 00:28:00,51.9,38.4,30.00,East,93,0.0,9.0,60,0.00,,,0.00,0,Wunderground v.1.15,2013-05-26 05:28:00,
2013-05-26 00:30:00,51.9,38.4,29.99,East,91,2.0,4.0,60,0.00,,,0.00,0,Wunderground v.1.15,2013-05-26 05:30:00,
2013-05-26 00:32:00,51.8,38.3,29.99,NE,56,1.0,9.0,60,0.00,,,0.00,0,Wunderground v.1.15,2013-05-26 05:32:00,
2013-05-26 00:33:00,51.8,38.3,29.99,ENE,57,3.0,9.0,60,0.00,,,0.00,0,Wunderground v.1.15,2013-05-26 05:33:00,
2013-05-26 00:35:00,51.8,38.3,29.99,ENE,73,2.0,9.0,60,0.00,,,0.00,0,Wunderground v.1.15,2013-05-26 05:35:00,
2013-05-26 00:37:00,51.8,38.3,29.98,SE,127,5.0,10.0,60,0.00,,,0.00,0,Wunderground v.1.15,2013-05-26 05:37:00,
2013-05-26 00:38:00,51.8,38.3,29.98,SE,127,3.0,10.0,60,0.00,,,0.00,0,Wunderground v.1.15,2013-05-26 05:38:00,
2013-05-26 00:39:00,51.8,38.3,29.98,SE,126,0.0,10.0,60,0.00,,,0.00,0,Wunderground v.1.15,2013-05-26 05:39:00,
2013-05-26 00:40:00,51.8,38.3,29.98,ESE,108,0.0,5.0,60,0.00,,,0.00,0,Wunderground v.1.15,2013-05-26 05:40:00,
2013-05-26 00:43:00,51.7,38.7,29.99,ESE,103,1.0,5.0,61,0.00,,,0.00,0,Wunderground v.1.15,2013-05-26 05:43:00,
2013-05-26 00:44:00,51.7,38.7,29.99,ENE,65,4.0,6.0,61,0.00,,,0.00,0,Wunderground v.1.15,2013-05-26 05:44:00,
2013-05-26 00:45:00,51.7,38.7,29.99,SE,137,0.0,10.0,61,0.00,,,0.00,0,Wunderground v.1.15,2013-05-26 05:45:00,
2013-05-26 00:48:00,51.7,38.7,29.99,SE,131,0.0,10.0,61,0.00,,,0.00,0,Wunderground v.1.15,2013-05-26 05:48:00,
2013-05-26 00:49:00,51.6,39.0,30.00,SE,130,0.0,0.0,62,0.00,,,0.00,0,Wunderground v.1.15,2013-05-26 05:49:00,
2013-05-26 00:51:00,51.6,39.0,29.99,SE,140,0.0,10.0,62,0.00,,,0.00,0,Wunderground v.1.15,2013-05-26 05:51:00,
2013-05-26 00:53:00,51.6,39.0,29.99,East,87,0.0,10.0,62,0.00,,,0.00,0,Wunderground v.1.15,2013-05-26 05:53:00,
2013-05-26 00:54:00,51.5,38.9,30.00,ENE,76,2.0,10.0,62,0.00,,,0.00,0,Wunderground v.1.15,2013-05-26 05:54:00,
2013-05-26 00:56:00,51.5,38.9,29.99,ESE,112,1.0,10.0,62,0.00,,,0.00,0,Wunderground v.1.15,2013-05-26 05:56:00,
2013-05-26 00:58:00,51.5,38.9,29.99,SE,127,2.0,10.0,62,0.00,,,0.00,0,Wunderground v.1.15,2013-05-26 05:58:00,
2013-05-26 00:59:00,51.6,39.0,29.99,SE,126,8.0,10.0,62,0.00,,,0.00,0,Wunderground v.1.15,2013-05-26 05:59:00,
2013-05-26 01:01:00,51.6,39.0,29.98,SE,127,1.0,7.0,62,0.00,,,0.00,0,Wunderground v.1.15,2013-05-26 06:01:00,
2013-05-26 01:03:00,51.5,38.9,29.99,SSE,156,6.0,10.0,62,0.00,,,0.00,0,Wunderground v.1.15,2013-05-26 06:03:00,
2013-05-26 01:04:00,51.5,38.9,29.99,SSE,153,5.0,10.0,62,0.00,,,0.00,0,Wunderground v.1.15,2013-05-26 06:04:00,
2013-05-26 01:05:00,51.6,39.0,29.99,ENE,71,4.0,10.0,62,0.00,,,0.00,0,Wunderground v.1.15,2013-05-26 06:05:00,
2013-05-26 01:06:00,51.6,39.0,29.99,ENE,74,7.0,10.0,62,0.00,,,0.00,0,Wunderground v.1.15,2013-05-26 06:06:00,
2013-05-26 01:08:00,51.6,39.0,29.99,SE,124,4.0,12.0,62,0.00,,,0.00,0,Wunderground v.1.15,2013-05-26 06:08:00,
2013-05-26 01:09:00,51.6,39.0,29.99,SE,124,3.0,12.0,62,0.00,,,0.00,0,Wunderground v.1.15,2013-05-26 06:09:00,
2013-05-26 01:10:00,51.7,39.1,29.99,ESE,106,4.0,16.0,62,0.00,,,0.00,0,Wunderground v.1.15,2013-05-26 06:10:00,
2013-05-26 01:11:00,51.7,39.1,29.99,ESE,118,8.0,16.0,62,0.00,,,0.00,0,Wunderground v.1.15,2013-05-26 06:11:00,
2013-05-26 01:13:00,51.8,38.8,29.99,ESE,111,6.0,16.0,61,0.00,,,0.00,0,Wunderground v.1.15,2013-05-26 06:13:00,
2013-05-26 01:14:00,51.8,38.8,29.99,ESE,105,3.0,16.0,61,0.00,,,0.00,0,Wunderground v.1.15,2013-05-26 06:14:00,
2013-05-26 01:15:00,51.8,38.8,29.99,ESE,115,4.0,16.0,61,0.00,,,0.00,0,Wunderground v.1.15,2013-05-26 06:15:00,
2013-05-26 01:16:00,51.9,38.9,30.00,SE,126,3.0,16.0,61,0.00,,,0.00,0,Wunderground v.1.15,2013-05-26 06:16:00,
2013-05-26 01:18:00,51.9,38.9,30.00,SE,128,4.0,16.0,61,0.00,,,0.00,0,Wunderground v.1.15,2013-05-26 06:18:00,
2013-05-26 01:19:00,51.9,38.9,30.00,SE,128,2.0,16.0,61,0.00,,,0.00,0,Wunderground v.1.15,2013-05-26 06:19:00,
2013-05-26 01:20:00,51.9,38.9,30.00,East,96,6.0,13.0,61,0.00,,,0.00,0,Wunderground v.1.15,2013-05-26 06:20:00,
2013-05-26 01:21:00,51.9,38.9,30.00,ESE,115,5.0,13.0,61,0.00,,,0.00,0,Wunderground v.1.15,2013-05-26 06:21:00,
2013-05-26 01:24:00,52.0,39.0,29.99,East,95,0.0,13.0,61,0.00,,,0.00,0,Wunderground v.1.15,2013-05-26 06:24:00,
2013-05-26 01:25:00,52.0,39.0,29.99,East,95,3.0,13.0,61,0.00,,,0.00,0,Wunderground v.1.15,2013-05-26 06:25:00,
2013-05-26 01:27:00,52.0,39.0,29.99,SE,129,2.0,13.0,61,0.00,,,0.00,0,Wunderground v.1.15,2013-05-26 06:27:00,
2013-05-26 01:29:00,52.0,39.0,29.99,ESE,103,2.0,13.0,61,0.00,,,0.00,0,Wunderground v.1.15,2013-05-26 06:29:00,
2013-05-26 01:31:00,52.0,39.0,30.00,SE,144,5.0,11.0,61,0.00,,,0.00,0,Wunderground v.1.15,2013-05-26 06:31:00,
2013-05-26 01:32:00,52.0,39.0,29.99,SE,129,10.0,11.0,61,0.00,,,0.00,0,Wunderground v.1.15,2013-05-26 06:32:00,
2013-05-26 01:34:00,52.0,39.0,30.00,SE,131,1.0,11.0,61,0.00,,,0.00,0,Wunderground v.1.15,2013-05-26 06:34:00,
2013-05-26 01:36:00,51.9,38.9,30.00,SE,124,3.0,11.0,61,0.00,,,0.00,0,Wunderground v.1.15,2013-05-26 06:36:00,
2013-05-26 01:37:00,51.9,39.3,29.99,SE,130,4.0,11.0,62,0.00,,,0.00,0,Wunderground v.1.15,2013-05-26 06:37:00,
2013-05-26 01:39:00,51.9,38.9,29.99,SE,131,1.0,11.0,61,0.00,,,0.00,0,Wunderground v.1.15,2013-05-26 06:39:00,
2013-05-26 01:40:00,51.9,39.3,29.99,SE,128,4.0,5.0,62,0.00,,,0.00,0,Wunderground v.1.15,2013-05-26 06:40:00,
2013-05-26 01:41:00,51.9,39.3,29.99,ENE,65,1.0,6.0,62,0.00,,,0.00,0,Wunderground v.1.15,2013-05-26 06:41:00,
2013-05-26 01:42:00,51.8,38.8,29.99,ENE,71,7.0,7.0,61,0.00,,,0.00,0,Wunderground v.1.15,2013-05-26 06:42:00,
2013-05-26 01:44:00,51.8,39.2,29.98,ENE,72,3.0,7.0,62,0.00,,,0.00,0,Wunderground v.1.15,2013-05-26 06:44:00,
2013-05-26 01:45:00,51.8,39.2,29.98,ENE,74,3.0,7.0,62,0.00,,,0.00,0,Wunderground v.1.15,2013-05-26 06:45:00,
2013-05-26 01:46:00,51.7,38.7,29.97,East,90,4.0,9.0,61,0.00,,,0.00,0,Wunderground v.1.15,2013-05-26 06:46:00,
2013-05-26 01:47:00,51.7,39.1,29.97,ENE,75,5.0,9.0,62,0.00,,,0.00,0,Wunderground v.1.15,2013-05-26 06:47:00,
2013-05-26 01:49:00,51.7,39.1,29.97,ENE,76,2.0,9.0,62,0.00,,,0.00,0,Wunderground v.1.15,2013-05-26 06:49:00,
2013-05-26 01:50:00,51.6,39.0,29.97,ENE,76,2.0,2.0,62,0.00,,,0.00,0,Wunderground v.1.15,2013-05-26 06:50:00,
2013-05-26 01:51:00,51.6,39.0,29.97,ESE,115,1.0,7.0,62,0.00,,,0.00,0,Wunderground v.1.15,2013-05-26 06:51:00,
2013-05-26 01:52:00,51.6,39.0,29.97,ESE,111,2.0,7.0,62,0.00,,,0.00,0,Wunderground v.1.15,2013-05-26 06:52:00,
2013-05-26 01:54:00,51.5,38.9,29.98,SE,125,0.0,16.0,62,0.00,,,0.00,0,Wunderground v.1.15,2013-05-26 06:54:00,
2013-05-26 01:55:00,51.5,38.9,29.98,SE,127,6.0,16.0,62,0.00,,,0.00,0,Wunderground v.1.15,2013-05-26 06:55:00,
2013-05-26 01:56:00,51.5,38.9,29.98,SE,131,8.0,16.0,62,0.00,,,0.00,0,Wunderground v.1.15,2013-05-26 06:56:00,
2013-05-26 01:57:00,51.5,38.9,29.98,SE,128,0.0,16.0,62,0.00,,,0.00,0,Wunderground v.1.15,2013-05-26 06:57:00,
2013-05-26 01:59:00,51.5,38.9,29.98,SE,135,2.0,16.0,62,0.00,,,0.00,0,Wunderground v.1.15,2013-05-26 06:59:00,
2013-05-26 02:00:00,51.5,38.9,29.98,SE,136,4.0,6.0,62,0.00,,,0.00,0,Wunderground v.1.15,2013-05-26 07:00:00,
2013-05-26 02:01:00,51.4,38.8,29.98,SE,143,5.0,8.0,62,0.00,,,0.00,0,Wunderground v.1.15,2013-05-26 07:01:00,
2013-05-26 02:02:00,51.4,38.8,29.98,SE,141,0.0,9.0,62,0.00,,,0.00,0,Wunderground v.1.15,2013-05-26 07:02:00,
2013-05-26 02:04:00,51.4,38.8,29.98,ESE,118,0.0,9.0,62,0.00,,,0.00,0,Wunderground v.1.15,2013-05-26 07:04:00,
2013-05-26 02:05:00,51.4,38.8,29.98,SE,126,2.0,9.0,62,0.00,,,0.00,0,Wunderground v.1.15,2013-05-26 07:05:00,
2013-05-26 02:06:00,51.4,39.2,29.98,SE,124,7.0,9.0,63,0.00,,,0.00,0,Wunderground v.1.15,2013-05-26 07:06:00,
2013-05-26 02:08:00,51.3,39.1,29.98,SE,125,6.0,9.0,63,0.00,,,0.00,0,Wunderground v.1.15,2013-05-26 07:08:00,
2013-05-26 02:09:00,51.3,38.7,29.99,SE,125,0.0,9.0,62,0.00,,,0.00,0,Wunderground v.1.15,2013-05-26 07:09:00,
2013-05-26 02:10:00,51.3,39.1,29.98,SE,125,4.0,5.0,63,0.00,,,0.00,0,Wunderground v.1.15,2013-05-26 07:10:00,
2013-05-26 02:11:00,51.3,39.1,29.99,SE,125,1.0,5.0,63,0.00,,,0.00,0,Wunderground v.1.15,2013-05-26 07:11:00,
2013-05-26 02:13:00,51.2,39.0,29.99,SE,130,1.0,12.0,63,0.00,,,0.00,0,Wunderground v.1.15,2013-05-26 07:13:00,
2013-05-26 02:14:00,51.2,39.0,29.99,SE,130,0.0,12.0,63,0.00,,,0.00,0,Wunderground v.1.15,2013-05-26 07:14:00,
2013-05-26 02:15:00,51.2,39.0,29.99,SE,130,0.0,12.0,63,0.00,,,0.00,0,Wunderground v.1.15,2013-05-26 07:15:00,
2013-05-26 02:16:00,51.2,39.0,29.98,SSE,163,7.0,12.0,63,0.00,,,0.00,0,Wunderground v.1.15,2013-05-26 07:16:00,
2013-05-26 02:17:00,51.1,38.9,29.99,SSE,150,0.0,12.0,63,0.00,,,0.00,0,Wunderground v.1.15,2013-05-26 07:17:00,
2013-05-26 02:18:00,51.1,38.9,29.98,SSE,150,1.0,12.0,63,0.00,,,0.00,0,Wunderground v.1.15,2013-05-26 07:18:00,
2013-05-26 02:19:00,51.1,38.9,29.98,SSE,150,1.0,1.0,63,0.00,,,0.00,0,Wunderground v.1.15,2013-05-26 07:19:00,
2013-05-26 02:20:00,51.1,38.9,29.98,SSE,149,0.0,6.0,63,0.00,,,0.00,0,Wunderground v.1.15,2013-05-26 07:20:00,
2013-05-26 02:21:00,51.1,38.9,29.98,SE,144,6.0,10.0,63,0.00,,,0.00,0,Wunderground v.1.15,2013-05-26 07:21:00,
2013-05-26 02:22:00,51.0,38.8,29.98,SE,144,2.0,10.0,63,0.00,,,0.00,0,Wunderground v.1.15,2013-05-26 07:22:00,
2013-05-26 02:23:00,51.0,38.8,29.97,SE,144,0.0,10.0,63,0.00,,,0.00,0,Wunderground v.1.15,2013-05-26 07:23:00,
2013-05-26 02:24:00,51.0,38.8,29.98,SE,144,0.0,10.0,63,0.00,,,0.00,0,Wunderground v.1.15,2013-05-26 07:24:00,
2013-05-26 02:25:00,50.9,38.7,29.98,SE,144,0.0,10.0,63,0.00,,,0.00,0,Wunderground v.1.15,2013-05-26 07:25:00,
2013-05-26 02:26:00,50.9,38.7,29.97,SE,144,1.0,10.0,63,0.00,,,0.00,0,Wunderground v.1.15,2013-05-26 07:26:00,
2013-05-26 02:27:00,50.8,38.7,29.97,SE,144,0.0,10.0,63,0.00,,,0.00,0,Wunderground v.1.15,2013-05-26 07:27:00,
2013-05-26 02:28:00,50.8,38.7,29.97,SE,144,0.0,10.0,63,0.00,,,0.00,0,Wunderground v.1.15,2013-05-26 07:28:00,
2013-05-26 02:29:00,50.7,39.0,29.97,SE,132,10.0,10.0,64,0.00,,,0.00,0,Wunderground v.1.15,2013-05-26 07:29:00,
2013-05-26 02:30:00,50.7,39.0,29.97,SE,131,1.0,10.0,64,0.00,,,0.00,0,Wunderground v.1.15,2013-05-26 07:30:00,
2013-05-26 02:31:00,50.7,39.0,29.96,SE,131,0.0,10.0,64,0.00,,,0.00,0,Wunderground v.1.15,2013-05-26 07:31:00,
2013-05-26 02:32:00,50.6,38.9,29.96,East,79,4.0,10.0,64,0.00,,,0.00,0,Wunderground v.1.15,2013-05-26 07:32:00,
2013-05-26 02:33:00,50.6,38.9,29.96,ENE,78,0.0,10.0,64,0.00,,,0.00,0,Wunderground v.1.15,2013-05-26 07:33:00,
2013-05-26 02:35:00,50.6,38.9,29.96,ENE,78,0.0,10.0,64,0.00,,,0.00,0,Wunderground v.1.15,2013-05-26 07:35:00,
2013-05-26 02:36:00,50.5,38.8,29.96,ENE,77,0.0,10.0,64,0.00,,,0.00,0,Wunderground v.1.15,2013-05-26 07:36:00,
2013-05-26 02:38:00,50.4,38.7,29.96,East,88,3.0,10.0,64,0.00,,,0.00,0,Wunderground v.1.15,2013-05-26 07:38:00,
2013-05-26 02:40:00,50.4,38.7,29.97,East,88,0.0,0.0,64,0.00,,,0.00,0,Wunderground v.1.15,2013-05-26 07:40:00,
2013-05-26 02:41:00,50.4,38.7,29.97,East,88,0.0,1.0,64,0.00,,,0.00,0,Wunderground v.1.15,2013-05-26 07:41:00,
2013-05-26 02:43:00,50.4,39.1,29.98,East,94,1.0,6.0,65,0.00,,,0.00,0,Wunderground v.1.15,2013-05-26 07:43:00,
2013-05-26 02:44:00,50.3,39.0,29.97,East,94,0.0,6.0,65,0.00,,,0.00,0,Wunderground v.1.15,2013-05-26 07:44:00,
2013-05-26 02:45:00,50.3,39.0,29.97,ESE,105,3.0,6.0,65,0.00,,,0.00,0,Wunderground v.1.15,2013-05-26 07:45:00,
2013-05-26 02:46:00,50.3,39.0,29.97,ESE,108,6.0,6.0,65,0.00,,,0.00,0,Wunderground v.1.15,2013-05-26 07:46:00,
2013-05-26 02:48:00,50.3,39.0,29.97,SE,130,6.0,10.0,65,0.00,,,0.00,0,Wunderground v.1.15,2013-05-26 07:48:00,
2013-05-26 02:49:00,50.3,39.0,29.98,SE,146,0.0,10.0,65,0.00,,,0.00,0,Wunderground v.1.15,2013-05-26 07:49:00,
2013-05-26 02:50:00,50.3,39.0,29.98,SE,146,0.0,1.0,65,0.00,,,0.00,0,Wunderground v.1.15,2013-05-26 07:50:00,
2013-05-26 02:51:00,50.3,39.0,29.97,SE,143,0.0,6.0,65,0.00,,,0.00,0,Wunderground v.1.15,2013-05-26 07:51:00,
2013-05-26 02:53:00,50.2,38.9,29.97,SE,142,0.0,6.0,65,0.00,,,0.00,0,Wunderground v.1.15,2013-05-26 07:53:00,
2013-05-26 02:54:00,50.2,38.9,29.96,SE,139,3.0,6.0,65,0.00,,,0.00,0,Wunderground v.1.15,2013-05-26 07:54:00,
2013-05-26 02:55:00,50.1,38.8,29.96,SE,139,1.0,6.0,65,0.00,,,0.00,0,Wunderground v.1.15,2013-05-26 07:55:00,
2013-05-26 02:56:00,50.1,39.2,29.96,SE,139,1.0,6.0,66,0.00,,,0.00,0,Wunderground v.1.15,2013-05-26 07:56:00,
2013-05-26 02:58:00,50.0,38.7,29.97,SE,139,0.0,6.0,65,0.00,,,0.00,0,Wunderground v.1.15,2013-05-26 07:58:00,
2013-05-26 02:59:00,49.9,39.0,29.97,SE,136,1.0,6.0,66,0.00,,,0.00,0,Wunderground v.1.15,2013-05-26 07:59:00,
2013-05-26 03:00:00,49.9,39.0,29.97,SE,132,1.0,7.0,66,0.00,,,0.00,0,Wunderground v.1.15,2013-05-26 08:00:00,
2013-05-26 03:01:00,49.9,39.0,29.97,SE,132,0.0,7.0,66,0.00,,,0.00,0,Wunderground v.1.15,2013-05-26 08:01:00,
2013-05-26 03:03:00,49.9,39.0,29.97,SE,133,2.0,9.0,66,0.00,,,0.00,0,Wunderground v.1.15,2013-05-26 08:03:00,
2013-05-26 03:04:00,49.9,39.0,29.97,SE,133,1.0,9.0,66,0.00,,,0.00,0,Wunderground v.1.15,2013-05-26 08:04:00,
2013-05-26 03:05:00,49.9,39.0,29.97,SE,134,0.0,9.0,66,0.00,,,0.00,0,Wunderground v.1.15,2013-05-26 08:05:00,
2013-05-26 03:07:00,49.9,39.0,29.97,SE,134,1.0,9.0,66,0.00,,,0.00,0,Wunderground v.1.15,2013-05-26 08:07:00,
2013-05-26 03:08:00,49.9,39.0,29.96,SE,133,0.0,9.0,66,0.00,,,0.00,0,Wunderground v.1.15,2013-05-26 08:08:00,
2013-05-26 03:09:00,49.8,38.9,29.97,SE,133,0.0,9.0,66,0.00,,,0.00,0,Wunderground v.1.15,2013-05-26 08:09:00,
2013-05-26 03:10:00,49.8,38.9,29.96,SE,133,1.0,7.0,66,0.00,,,0.00,0,Wunderground v.1.15,2013-05-26 08:10:00,
2013-05-26 03:12:00,49.8,38.9,29.97,SE,134,5.0,8.0,66,0.00,,,0.00,0,Wunderground v.1.15,2013-05-26 08:12:00,
2013-05-26 03:13:00,49.8,38.9,29.97,SE,134,1.0,8.0,66,0.00,,,0.00,0,Wunderground v.1.15,2013-05-26 08:13:00,
2013-05-26 03:14:00,49.8,38.9,29.96,SE,134,0.0,8.0,66,0.00,,,0.00,0,Wunderground v.1.15,2013-05-26 08:14:00,
2013-05-26 03:16:00,49.8,38.9,29.96,SE,134,0.0,8.0,66,0.00,,,0.00,0,Wunderground v.1.15,2013-05-26 08:16:00,
2013-05-26 03:17:00,49.8,38.9,29.96,SE,133,1.0,8.0,66,0.00,,,0.00,0,Wunderground v.1.15,2013-05-26 08:17:00,
2013-05-26 03:18:00,49.7,39.2,29.97,SE,133,1.0,8.0,67,0.00,,,0.00,0,Wunderground v.1.15,2013-05-26 08:18:00,
2013-05-26 03:19:00,49.7,38.8,29.97,SE,133,1.0,8.0,66,0.00,,,0.00,0,Wunderground v.1.15,2013-05-26 08:19:00,
2013-05-26 03:21:00,49.7,39.2,29.97,SE,133,0.0,1.0,67,0.00,,,0.00,0,Wunderground v.1.15,2013-05-26 08:21:00,
2013-05-26 03:22:00,49.7,38.8,29.97,SE,133,1.0,4.0,66,0.00,,,0.00,0,Wunderground v.1.15,2013-05-26 08:22:00,
2013-05-26 03:24:00,49.7,39.2,29.97,SE,124,0.0,4.0,67,0.00,,,0.00,0,Wunderground v.1.15,2013-05-26 08:24:00,
2013-05-26 03:26:00,49.7,38.8,29.96,SE,124,1.0,4.0,66,0.00,,,0.00,0,Wunderground v.1.15,2013-05-26 08:26:00,
2013-05-26 03:27:00,49.7,39.2,29.97,SE,124,0.0,4.0,67,0.00,,,0.00,0,Wunderground v.1.15,2013-05-26 08:27:00,
2013-05-26 03:29:00,49.7,39.2,29.96,SE,125,0.0,5.0,67,0.00,,,0.00,0,Wunderground v.1.15,2013-05-26 08:29:00,
2013-05-26 03:31:00,49.6,38.7,29.97,ENE,75,3.0,6.0,66,0.00,,,0.00,0,Wunderground v.1.15,2013-05-26 08:31:00,
2013-05-26 03:32:00,49.6,38.7,29.96,ENE,75,1.0,6.0,66,0.00,,,0.00,0,Wunderground v.1.15,2013-05-26 08:32:00,
2013-05-26 03:34:00,49.6,38.7,29.97,ENE,75,0.0,6.0,66,0.00,,,0.00,0,Wunderground v.1.15,2013-05-26 08:34:00,
2013-05-26 03:36:00,49.6,38.7,29.96,East,79,6.0,6.0,66,0.00,,,0.00,0,Wunderground v.1.15,2013-05-26 08:36:00,
2013-05-26 03:37:00,49.6,38.7,29.97,East,79,4.0,6.0,66,0.00,,,0.00,0,Wunderground v.1.15,2013-05-26 08:37:00,
2013-05-26 03:39:00,49.6,39.1,29.96,East,79,0.0,6.0,67,0.00,,,0.00,0,Wunderground v.1.15,2013-05-26 08:39:00,
2013-05-26 03:41:00,49.6,39.1,29.97,East,79,1.0,4.0,67,0.00,,,0.00,0,Wunderground v.1.15,2013-05-26 08:41:00,
2013-05-26 03:42:00,49.6,38.7,29.96,East,83,7.0,7.0,66,0.00,,,0.00,0,Wunderground v.1.15,2013-05-26 08:42:00,
2013-05-26 03:44:00,49.6,38.7,29.96,East,91,2.0,7.0,66,0.00,,,0.00,0,Wunderground v.1.15,2013-05-26 08:44:00,
2013-05-26 03:46:00,49.7,38.8,29.95,East,91,0.0,7.0,66,0.00,,,0.00,0,Wunderground v.1.15,2013-05-26 08:46:00,
2013-05-26 03:47:00,49.7,38.8,29.95,East,95,1.0,7.0,66,0.00,,,0.00,0,Wunderground v.1.15,2013-05-26 08:47:00,
2013-05-26 03:48:00,49.7,38.8,29.95,East,95,1.0,7.0,66,0.00,,,0.00,0,Wunderground v.1.15,2013-05-26 08:48:00,
2013-05-26 03:49:00,49.7,38.8,29.95,East,96,0.0,7.0,66,0.00,,,0.00,0,Wunderground v.1.15,2013-05-26 08:49:00,
2013-05-26 03:51:00,49.7,38.8,29.96,East,96,0.0,3.0,66,0.00,,,0.00,0,Wunderground v.1.15,2013-05-26 08:51:00,
2013-05-26 03:52:00,49.7,38.8,29.96,East,96,1.0,3.0,66,0.00,,,0.00,0,Wunderground v.1.15,2013-05-26 08:52:00,
2013-05-26 03:53:00,49.7,38.8,29.95,East,96,0.0,3.0,66,0.00,,,0.00,0,Wunderground v.1.15,2013-05-26 08:53:00,
2013-05-26 03:54:00,49.6,38.7,29.96,East,96,1.0,3.0,66,0.00,,,0.00,0,Wunderground v.1.15,2013-05-26 08:54:00,
2013-05-26 03:56:00,49.6,38.7,29.95,ESE,122,0.0,9.0,66,0.00,,,0.00,0,Wunderground v.1.15,2013-05-26 08:56:00,
2013-05-26 03:58:00,49.6,38.7,29.96,ESE,123,1.0,9.0,66,0.00,,,0.00,0,Wunderground v.1.15,2013-05-26 08:58:00,
2013-05-26 03:59:00,49.6,38.7,29.95,SE,124,1.0,1.0,66,0.00,,,0.00,0,Wunderground v.1.15,2013-05-26 08:59:00,
2013-05-26 04:02:00,49.6,38.7,29.96,ESE,120,0.0,2.0,66,0.00,,,0.00,0,Wunderground v.1.15,2013-05-26 09:02:00,
2013-05-26 04:03:00,49.6,38.7,29.96,ESE,121,0.0,4.0,66,0.00,,,0.00,0,Wunderground v.1.15,2013-05-26 09:03:00,
2013-05-26 04:04:00,49.6,38.7,29.95,ESE,121,1.0,4.0,66,0.00,,,0.00,0,Wunderground v.1.15,2013-05-26 09:04:00,
2013-05-26 04:05:00,49.6,38.7,29.95,ESE,121,4.0,4.0,66,0.00,,,0.00,0,Wunderground v.1.15,2013-05-26 09:05:00,
2013-05-26 04:07:00,49.6,38.7,29.96,ESE,120,0.0,4.0,66,0.00,,,0.00,0,Wunderground v.1.15,2013-05-26 09:07:00,
2013-05-26 04:08:00,49.6,38.7,29.95,ESE,120,0.0,4.0,66,0.00,,,0.00,0,Wunderground v.1.15,2013-05-26 09:08:00,
2013-05-26 04:09:00,49.6,38.7,29.96,ESE,119,0.0,1.0,66,0.00,,,0.00,0,Wunderground v.1.15,2013-05-26 09:09:00,
2013-05-26 04:10:00,49.6,38.7,29.96,ESE,118,2.0,3.0,66,0.00,,,0.00,0,Wunderground v.1.15,2013-05-26 09:10:00,
2013-05-26 04:12:00,49.6,38.7,29.95,SE,145,2.0,9.0,66,0.00,,,0.00,0,Wunderground v.1.15,2013-05-26 09:12:00,
2013-05-26 04:13:00,49.6,38.7,29.95,SE,145,0.0,9.0,66,0.00,,,0.00,0,Wunderground v.1.15,2013-05-26 09:13:00,
2013-05-26 04:15:00,49.6,38.7,29.95,SE,145,1.0,9.0,66,0.00,,,0.00,0,Wunderground v.1.15,2013-05-26 09:15:00,
2013-05-26 04:17:00,49.6,38.7,29.95,SE,135,11.0,12.0,66,0.00,,,0.00,0,Wunderground v.1.15,2013-05-26 09:17:00,
2013-05-26 04:18:00,49.7,38.8,29.95,SE,134,6.0,13.0,66,0.00,,,0.00,0,Wunderground v.1.15,2013-05-26 09:18:00,
2013-05-26 04:20:00,49.7,38.8,29.95,SE,131,3.0,3.0,66,0.00,,,0.00,0,Wunderground v.1.15,2013-05-26 09:20:00,
2013-05-26 04:22:00,49.6,38.7,29.95,SE,130,7.0,13.0,66,0.00,,,0.00,0,Wunderground v.1.15,2013-05-26 09:22:00,
2013-05-26 04:23:00,49.6,38.3,29.96,SE,128,7.0,13.0,65,0.00,,,0.00,0,Wunderground v.1.15,2013-05-26 09:23:00,
2013-05-26 04:24:00,49.6,38.3,29.96,SE,129,1.0,13.0,65,0.00,,,0.00,0,Wunderground v.1.15,2013-05-26 09:24:00,
2013-05-26 04:25:00,49.7,38.4,29.96,SE,129,3.0,13.0,65,0.00,,,0.00,0,Wunderground v.1.15,2013-05-26 09:25:00,
2013-05-26 04:27:00,49.7,38.4,29.96,SE,132,11.0,13.0,65,0.00,,,0.00,0,Wunderground v.1.15,2013-05-26 09:27:00,
2013-05-26 04:28:00,49.7,38.4,29.96,SE,129,1.0,13.0,65,0.00,,,0.00,0,Wunderground v.1.15,2013-05-26 09:28:00,
2013-05-26 04:29:00,49.7,38.4,29.96,SE,127,0.0,13.0,65,0.00,,,0.00,0,Wunderground v.1.15,2013-05-26 09:29:00,
2013-05-26 04:30:00,49.7,38.4,29.97,SE,128,7.0,7.0,65,0.00,,,0.00,0,Wunderground v.1.15,2013-05-26 09:30:00,
2013-05-26 04:32:00,49.7,38.4,29.97,SE,129,0.0,8.0,65,0.00,,,0.00,0,Wunderground v.1.15,2013-05-26 09:32:00,
2013-05-26 04:33:00,49.7,38.4,29.98,ESE,117,2.0,8.0,65,0.00,,,0.00,0,Wunderground v.1.15,2013-05-26 09:33:00,
2013-05-26 04:34:00,49.7,38.4,29.97,SE,126,1.0,8.0,65,0.00,,,0.00,0,Wunderground v.1.15,2013-05-26 09:34:00,
2013-05-26 04:35:00,49.7,38.4,29.97,SE,126,1.0,8.0,65,0.00,,,0.00,0,Wunderground v.1.15,2013-05-26 09:35:00,
2013-05-26 04:37:00,49.8,38.5,29.97,SE,126,1.0,8.0,65,0.00,,,0.00,0,Wunderground v.1.15,2013-05-26 09:37:00,
2013-05-26 04:38:00,49.8,38.5,29.98,SE,127,1.0,8.0,65,0.00,,,0.00,0,Wunderground v.1.15,2013-05-26 09:38:00,
2013-05-26 04:39:00,49.8,38.5,29.98,SE,127,1.0,8.0,65,0.00,,,0.00,0,Wunderground v.1.15,2013-05-26 09:39:00,
2013-05-26 04:40:00,49.8,38.1,29.97,ENE,57,0.0,5.0,64,0.00,,,0.00,0,Wunderground v.1.15,2013-05-26 09:40:00,
2013-05-26 04:41:00,49.8,38.1,29.98,SE,127,0.0,9.0,64,0.00,,,0.00,0,Wunderground v.1.15,2013-05-26 09:41:00,
2013-05-26 04:42:00,49.8,38.1,29.98,SE,125,7.0,9.0,64,0.00,,,0.00,0,Wunderground v.1.15,2013-05-26 09:42:00,
2013-05-26 04:44:00,49.9,38.2,29.99,ESE,122,0.0,9.0,64,0.00,,,0.00,0,Wunderground v.1.15,2013-05-26 09:44:00,
2013-05-26 04:45:00,49.9,38.2,29.98,ESE,122,1.0,9.0,64,0.00,,,0.00,0,Wunderground v.1.15,2013-05-26 09:45:00,
2013-05-26 04:46:00,49.9,38.2,29.98,ESE,120,3.0,9.0,64,0.00,,,0.00,0,Wunderground v.1.15,2013-05-26 09:46:00,
2013-05-26 04:47:00,49.9,38.2,29.98,ESE,122,3.0,9.0,64,0.00,,,0.00,0,Wunderground v.1.15,2013-05-26 09:47:00,
2013-05-26 04:49:00,49.9,38.2,29.99,ESE,119,1.0,9.0,64,0.00,,,0.00,0,Wunderground v.1.15,2013-05-26 09:49:00,
2013-05-26 04:50:00,49.9,38.2,29.99,ESE,120,0.0,2.0,64,0.00,,,0.00,0,Wunderground v.1.15,2013-05-26 09:50:00,
2013-05-26 04:51:00,49.9,38.2,29.99,ESE,121,4.0,6.0,64,0.00,,,0.00,0,Wunderground v.1.15,2013-05-26 09:51:00,
2013-05-26 04:52:00,50.0,38.3,29.99,ESE,121,2.0,6.0,64,0.00,,,0.00,0,Wunderground v.1.15,2013-05-26 09:52:00,
2013-05-26 04:54:00,49.9,38.2,29.99,ESE,121,3.0,6.0,64,0.00,,,0.00,0,Wunderground v.1.15,2013-05-26 09:54:00,
2013-05-26 04:55:00,49.9,38.6,29.99,ESE,121,3.0,6.0,65,0.00,,,0.00,0,Wunderground v.1.15,2013-05-26 09:55:00,
2013-05-26 04:56:00,49.9,38.6,29.99,ESE,121,0.0,6.0,65,0.00,,,0.00,0,Wunderground v.1.15,2013-05-26 09:56:00,
2013-05-26 04:57:00,49.9,38.6,29.99,ESE,121,0.0,6.0,65,0.00,,,0.00,0,Wunderground v.1.15,2013-05-26 09:57:00,
2013-05-26 04:59:00,49.8,38.5,29.99,ESE,121,0.0,6.0,65,0.00,,,0.00,0,Wunderground v.1.15,2013-05-26 09:59:00,
2013-05-26 05:00:00,49.8,38.5,29.99,ESE,121,0.0,4.0,65,0.00,,,0.00,0,Wunderground v.1.15,2013-05-26 10:00:00,
2013-05-26 05:02:00,49.8,38.5,29.99,ESE,121,0.0,4.0,65,0.00,,,0.00,0,Wunderground v.1.15,2013-05-26 10:02:00,
2013-05-26 05:03:00,49.7,38.4,29.99,ESE,121,3.0,4.0,65,0.00,,,0.00,0,Wunderground v.1.15,2013-05-26 10:03:00,
2013-05-26 05:04:00,49.7,38.8,29.99,ESE,121,0.0,4.0,66,0.00,,,0.00,0,Wunderground v.1.15,2013-05-26 10:04:00,
2013-05-26 05:05:00,49.7,38.4,29.99,ESE,121,0.0,4.0,65,0.00,,,0.00,0,Wunderground v.1.15,2013-05-26 10:05:00,
2013-05-26 05:07:00,49.6,38.7,29.99,SE,127,3.0,7.0,66,0.00,,,0.00,0,Wunderground v.1.15,2013-05-26 10:07:00,
2013-05-26 05:08:00,49.6,38.7,29.99,SE,127,0.0,7.0,66,0.00,,,0.00,0,Wunderground v.1.15,2013-05-26 10:08:00,
2013-05-26 05:09:00,49.6,38.3,29.99,SE,127,0.0,0.0,65,0.00,,,0.00,0,Wunderground v.1.15,2013-05-26 10:09:00,
2013-05-26 05:10:00,49.6,38.3,29.99,SE,127,1.0,3.0,65,0.00,,,0.00,0,Wunderground v.1.15,2013-05-26 10:10:00,
2013-05-26 05:12:00,49.5,38.6,29.99,SE,127,0.0,4.0,66,0.00,,,0.00,0,Wunderground v.1.15,2013-05-26 10:12:00,
2013-05-26 05:13:00,49.6,38.7,29.99,SE,127,3.0,4.0,66,0.00,,,0.00,0,Wunderground v.1.15,2013-05-26 10:13:00,
2013-05-26 05:14:00,49.5,38.6,30.00,SE,127,0.0,5.0,66,0.00,,,0.00,0,Wunderground v.1.15,2013-05-26 10:14:00,
2013-05-26 05:15:00,49.5,38.6,29.99,SE,127,1.0,5.0,66,0.00,,,0.00,0,Wunderground v.1.15,2013-05-26 10:15:00,
2013-05-26 05:17:00,49.5,38.6,29.99,SE,127,5.0,5.0,66,0.00,,,0.00,0,Wunderground v.1.15,2013-05-26 10:17:00,
2013-05-26 05:18:00,49.5,38.6,29.99,SE,124,3.0,8.0,66,0.00,,,0.00,0,Wunderground v.1.15,2013-05-26 10:18:00,
2013-05-26 05:19:00,49.5,38.6,29.99,ESE,123,2.0,2.0,66,0.00,,,0.00,0,Wunderground v.1.15,2013-05-26 10:19:00,
2013-05-26 05:20:00,49.5,38.6,29.99,ESE,122,3.0,3.0,66,0.00,,,0.00,0,Wunderground v.1.15,2013-05-26 10:20:00,
2013-05-26 05:21:00,49.5,38.6,29.99,ESE,122,0.0,6.0,66,0.00,,,0.00,0,Wunderground v.1.15,2013-05-26 10:21:00,
2013-05-26 05:22:00,49.5,38.6,29.99,ESE,122,0.0,6.0,66,0.00,,,0.00,0,Wunderground v.1.15,2013-05-26 10:22:00,
2013-05-26 05:23:00,49.5,38.6,29.99,ESE,122,0.0,6.0,66,0.00,,,0.00,0,Wunderground v.1.15,2013-05-26 10:23:00,
2013-05-26 05:25:00,49.5,38.6,29.99,ESE,122,0.0,6.0,66,0.00,,,0.00,0,Wunderground v.1.15,2013-05-26 10:25:00,
2013-05-26 05:26:00,49.5,38.6,29.99,ESE,122,0.0,6.0,66,0.00,,,0.00,0,Wunderground v.1.15,2013-05-26 10:26:00,
2013-05-26 05:27:00,49.5,38.6,29.99,SE,133,1.0,9.0,66,0.00,,,0.00,0,Wunderground v.1.15,2013-05-26 10:27:00,
2013-05-26 05:28:00,49.5,38.6,29.99,SE,133,0.0,9.0,66,0.00,,,0.00,0,Wunderground v.1.15,2013-05-26 10:28:00,
2013-05-26 05:30:00,49.5,38.6,29.98,SE,125,5.0,6.0,66,0.00,,,0.00,0,Wunderground v.1.15,2013-05-26 10:30:00,
2013-05-26 05:31:00,49.5,38.6,29.98,SE,126,0.0,6.0,66,0.00,,,0.00,0,Wunderground v.1.15,2013-05-26 10:31:00,
2013-05-26 05:32:00,49.5,38.6,29.98,SE,126,1.0,6.0,66,0.00,,,0.00,0,Wunderground v.1.15,2013-05-26 10:32:00,
2013-05-26 05:33:00,49.5,38.6,29.99,SE,126,1.0,6.0,66,0.00,,,0.00,0,Wunderground v.1.15,2013-05-26 10:33:00,
2013-05-26 05:35:00,49.5,38.2,29.98,SE,127,4.0,6.0,65,0.00,,,0.00,0,Wunderground v.1.15,2013-05-26 10:35:00,
2013-05-26 05:36:00,49.6,38.3,29.98,SE,127,0.0,6.0,65,0.00,,,0.00,0,Wunderground v.1.15,2013-05-26 10:36:00,
2013-05-26 05:37:00,49.6,38.3,29.98,SE,126,3.0,6.0,65,0.00,,,0.00,0,Wunderground v.1.15,2013-05-26 10:37:00,
2013-05-26 05:39:00,49.6,38.3,29.98,SE,126,0.0,6.0,65,0.00,,,0.00,0,Wunderground v.1.15,2013-05-26 10:39:00,
2013-05-26 05:40:00,49.6,38.3,29.98,ESE,123,0.0,4.0,65,0.00,,,0.00,0,Wunderground v.1.15,2013-05-26 10:40:00,
2013-05-26 05:41:00,49.6,38.3,29.98,ESE,122,0.0,4.0,65,0.00,,,0.00,0,Wunderground v.1.15,2013-05-26 10:41:00,
2013-05-26 05:42:00,49.6,38.3,29.98,ESE,123,1.0,4.0,65,0.00,,,0.00,0,Wunderground v.1.15,2013-05-26 10:42:00,
2013-05-26 05:44:00,49.7,38.4,29.98,ESE,123,0.0,6.0,65,0.00,,,0.00,0,Wunderground v.1.15,2013-05-26 10:44:00,
2013-05-26 05:45:00,49.7,38.4,29.98,ESE,123,0.0,6.0,65,0.00,,,0.00,0,Wunderground v.1.15,2013-05-26 10:45:00,
2013-05-26 05:46:00,49.7,38.4,29.98,ESE,102,1.0,6.0,65,0.00,,,0.00,0,Wunderground v.1.15,2013-05-26 10:46:00,
2013-05-26 05:47:00,49.7,38.4,29.99,ESE,102,0.0,6.0,65,0.00,,,0.00,0,Wunderground v.1.15,2013-05-26 10:47:00,
2013-05-26 05:49:00,49.7,38.4,29.99,ESE,102,0.0,6.0,65,0.00,,,0.00,0,Wunderground v.1.15,2013-05-26 10:49:00,
2013-05-26 05:50:00,49.7,38.4,29.99,ESE,102,0.0,1.0,65,0.00,,,0.00,0,Wunderground v.1.15,2013-05-26 10:50:00,
2013-05-26 05:51:00,49.7,38.4,29.98,ESE,102,1.0,2.0,65,0.00,,,0.00,0,Wunderground v.1.15,2013-05-26 10:51:00,
2013-05-26 05:52:00,49.7,38.4,29.98,East,86,1.0,5.0,65,0.00,,,0.00,0,Wunderground v.1.15,2013-05-26 10:52:00,
2013-05-26 05:54:00,49.7,38.0,29.99,SE,134,8.0,11.0,64,0.00,,,0.00,0,Wunderground v.1.15,2013-05-26 10:54:00,
2013-05-26 05:55:00,49.8,38.1,29.98,East,86,5.0,11.0,64,0.00,,,0.00,0,Wunderground v.1.15,2013-05-26 10:55:00,
2013-05-26 05:56:00,49.8,38.1,29.99,ENE,74,1.0,11.0,64,0.00,,,0.00,0,Wunderground v.1.15,2013-05-26 10:56:00,
2013-05-26 05:57:00,49.8,38.1,29.98,ENE,74,1.0,11.0,64,0.00,,,0.00,0,Wunderground v.1.15,2013-05-26 10:57:00,
2013-05-26 05:58:00,49.8,38.1,29.99,ENE,74,0.0,11.0,64,0.00,,,0.00,0,Wunderground v.1.15,2013-05-26 10:58:00,
2013-05-26 05:59:00,49.8,38.1,29.99,East,101,4.0,4.0,64,0.00,,,0.00,0,Wunderground v.1.15,2013-05-26 10:59:00,
2013-05-26 06:00:00,49.8,38.1,30.00,ESE,109,0.0,7.0,64,0.00,,,0.00,0,Wunderground v.1.15,2013-05-26 11:00:00,
2013-05-26 06:01:00,49.9,38.2,29.99,ESE,109,0.0,7.0,64,0.00,,,0.00,0,Wunderground v.1.15,2013-05-26 11:01:00,
2013-05-26 06:02:00,49.9,38.2,29.99,ESE,109,1.0,7.0,64,0.00,,,0.00,0,Wunderground v.1.15,2013-05-26 11:02:00,
2013-05-26 06:03:00,49.9,38.2,29.99,ESE,110,0.0,7.0,64,0.00,,,0.00,0,Wunderground v.1.15,2013-05-26 11:03:00,
2013-05-26 06:04:00,49.9,38.2,29.99,ESE,117,1.0,7.0,64,0.00,,,0.00,0,Wunderground v.1.15,2013-05-26 11:04:00,
2013-05-26 06:05:00,49.9,37.8,30.00,SE,145,5.0,14.0,63,0.00,,,0.00,0,Wunderground v.1.15,2013-05-26 11:05:00,
2013-05-26 06:06:00,50.0,37.9,29.99,SE,145,0.0,14.0,63,0.00,,,0.00,0,Wunderground v.1.15,2013-05-26 11:06:00,
2013-05-26 06:07:00,50.0,37.9,30.00,SE,144,1.0,14.0,63,0.00,,,0.00,0,Wunderground v.1.15,2013-05-26 11:07:00,
2013-05-26 06:08:00,50.0,37.9,29.99,SE,142,7.0,14.0,63,0.00,,,0.00,0,Wunderground v.1.15,2013-05-26 11:08:00,
2013-05-26 06:09:00,50.0,37.9,30.00,SE,142,0.0,2.0,63,0.00,,,0.00,0,Wunderground v.1.15,2013-05-26 11:09:00,
2013-05-26 06:11:00,50.0,37.9,30.00,SE,142,7.0,7.0,63,0.00,,,0.00,0,Wunderground v.1.15,2013-05-26 11:11:00,
2013-05-26 06:12:00,50.0,37.9,30.00,SE,141,0.0,7.0,63,0.00,,,0.00,0,Wunderground v.1.15,2013-05-26 11:12:00,
2013-05-26 06:13:00,50.0,37.9,30.00,SE,142,2.0,7.0,63,0.00,,,0.00,0,Wunderground v.1.15,2013-05-26 11:13:00,
2013-05-26 06:15:00,50.0,37.9,30.00,SE,144,5.0,7.0,63,0.00,,,0.00,0,Wunderground v.1.15,2013-05-26 11:15:00,
2013-05-26 06:16:00,50.1,38.0,30.00,SE,142,1.0,7.0,63,0.00,,,0.00,0,Wunderground v.1.15,2013-05-26 11:16:00,
2013-05-26 06:17:00,50.1,38.0,30.01,SE,142,0.0,7.0,63,0.00,,,0.00,0,Wunderground v.1.15,2013-05-26 11:17:00,
2013-05-26 06:18:00,50.1,38.0,30.00,SE,142,0.0,7.0,63,0.00,,,0.00,0,Wunderground v.1.15,2013-05-26 11:18:00,
2013-05-26 06:20:00,50.1,38.0,30.00,SE,140,1.0,3.0,63,0.00,,,0.00,0,Wunderground v.1.15,2013-05-26 11:20:00,
2013-05-26 06:21:00,50.1,38.0,30.00,SE,140,0.0,3.0,63,0.00,,,0.00,0,Wunderground v.1.15,2013-05-26 11:21:00,
2013-05-26 06:22:00,50.1,38.0,30.00,SE,139,0.0,3.0,63,0.00,,,0.00,0,Wunderground v.1.15,2013-05-26 11:22:00,
2013-05-26 06:23:00,50.1,38.0,30.00,SE,139,0.0,3.0,63,0.00,,,0.00,0,Wunderground v.1.15,2013-05-26 11:23:00,
2013-05-26 06:25:00,50.1,38.0,30.00,ESE,107,1.0,6.0,63,0.00,,,0.00,0,Wunderground v.1.15,2013-05-26 11:25:00,
2013-05-26 06:26:00,50.1,37.6,30.00,ESE,112,0.0,7.0,62,0.00,,,0.00,0,Wunderground v.1.15,2013-05-26 11:26:00,
2013-05-26 06:27:00,50.1,38.0,30.00,ESE,112,0.0,7.0,63,0.00,,,0.00,0,Wunderground v.1.15,2013-05-26 11:27:00,
2013-05-26 06:28:00,50.1,37.6,30.01,SE,127,1.0,7.0,62,0.00,,,0.00,0,Wunderground v.1.15,2013-05-26 11:28:00,
2013-05-26 06:30:00,50.2,37.7,30.00,SE,139,1.0,2.0,62,0.00,,,0.00,0,Wunderground v.1.15,2013-05-26 11:30:00,
2013-05-26 06:31:00,50.2,37.7,29.99,SE,139,1.0,3.0,62,0.00,,,0.00,0,Wunderground v.1.15,2013-05-26 11:31:00,
2013-05-26 06:32:00,50.2,37.7,30.00,SE,139,0.0,3.0,62,0.00,,,0.00,0,Wunderground v.1.15,2013-05-26 11:32:00,
2013-05-26 06:33:00,50.2,38.1,30.00,SE,135,0.0,3.0,63,0.00,,,0.00,0,Wunderground v.1.15,2013-05-26 11:33:00,
2013-05-26 06:35:00,50.2,38.1,29.99,SE,134,0.0,6.0,63,0.00,,,0.00,0,Wunderground v.1.15,2013-05-26 11:35:00,
2013-05-26 06:37:00,50.1,37.6,29.99,SE,126,6.0,9.0,62,0.00,,,0.00,0,Wunderground v.1.15,2013-05-26 11:37:00,
2013-05-26 06:38:00,50.1,37.6,29.99,ESE,122,0.0,9.0,62,0.00,,,0.00,0,Wunderground v.1.15,2013-05-26 11:38:00,
2013-05-26 06:40:00,50.1,37.6,29.98,ESE,116,2.0,5.0,62,0.00,,,0.00,0,Wunderground v.1.15,2013-05-26 11:40:00,
2013-05-26 06:42:00,50.1,37.6,29.99,ESE,118,3.0,8.0,62,0.00,,,0.00,0,Wunderground v.1.15,2013-05-26 11:42:00,
2013-05-26 06:43:00,50.1,37.6,29.98,SE,133,0.0,12.0,62,0.00,,,0.00,0,Wunderground v.1.15,2013-05-26 11:43:00,
2013-05-26 06:45:00,50.2,37.3,29.98,ENE,71,1.0,12.0,61,0.00,,,0.00,0,Wunderground v.1.15,2013-05-26 11:45:00,
2013-05-26 06:47:00,50.2,37.3,29.98,ENE,58,0.0,12.0,61,0.00,,,0.00,0,Wunderground v.1.15,2013-05-26 11:47:00,
2013-05-26 06:48:00,50.2,37.3,29.97,ENE,58,3.0,12.0,61,0.00,,,0.00,0,Wunderground v.1.15,2013-05-26 11:48:00,
2013-05-26 06:49:00,50.2,37.7,29.97,ENE,63,0.0,12.0,62,0.00,,,0.00,0,Wunderground v.1.15,2013-05-26 11:49:00,
2013-05-26 06:50:00,50.2,37.7,29.97,ENE,63,2.0,4.0,62,0.00,,,0.00,0,Wunderground v.1.15,2013-05-26 11:50:00,
2013-05-26 06:52:00,50.2,37.3,29.97,NE,47,4.0,8.0,61,0.00,,,0.00,0,Wunderground v.1.15,2013-05-26 11:52:00,
2013-05-26 06:53:00,50.2,37.3,29.97,ENE,58,6.0,8.0,61,0.00,,,0.00,0,Wunderground v.1.15,2013-05-26 11:53:00,
2013-05-26 06:54:00,50.2,37.3,29.97,ESE,118,0.0,8.0,61,0.00,,,0.00,0,Wunderground v.1.15,2013-05-26 11:54:00,
2013-05-26 06:55:00,50.2,37.3,29.97,ESE,116,5.0,8.0,61,0.00,,,0.00,0,Wunderground v.1.15,2013-05-26 11:55:00,
2013-05-26 06:57:00,50.2,37.3,29.97,ESE,116,0.0,8.0,61,0.00,,,0.00,0,Wunderground v.1.15,2013-05-26 11:57:00,
2013-05-26 06:58:00,50.2,37.3,29.96,ESE,116,1.0,8.0,61,0.00,,,0.00,0,Wunderground v.1.15,2013-05-26 11:58:00,
2013-05-26 06:59:00,50.2,37.3,29.96,ESE,120,7.0,8.0,61,0.00,,,0.00,0,Wunderground v.1.15,2013-05-26 11:59:00,
2013-05-26 07:01:00,50.1,37.2,29.96,ESE,120,3.0,4.0,61,0.00,,,0.00,0,Wunderground v.1.15,2013-05-26 12:01:00,
2013-05-26 07:02:00,50.1,37.2,29.96,ENE,57,3.0,11.0,61,0.00,,,0.00,0,Wunderground v.1.15,2013-05-26 12:02:00,
2013-05-26 07:03:00,50.1,37.2,29.96,ENE,57,3.0,11.0,61,0.00,,,0.00,0,Wunderground v.1.15,2013-05-26 12:03:00,
2013-05-26 07:04:00,50.1,37.2,29.96,East,83,4.0,11.0,61,0.00,,,0.00,0,Wunderground v.1.15,2013-05-26 12:04:00,
2013-05-26 07:06:00,50.1,37.2,29.97,East,81,1.0,11.0,61,0.00,,,0.00,0,Wunderground v.1.15,2013-05-26 12:06:00,
2013-05-26 07:08:00,50.1,36.7,29.97,ESE,107,3.0,11.0,60,0.00,,,0.00,0,Wunderground v.1.15,2013-05-26 12:08:00,
2013-05-26 07:09:00,50.1,37.2,29.97,ESE,104,0.0,0.0,61,0.00,,,0.00,0,Wunderground v.1.15,2013-05-26 12:09:00,
2013-05-26 07:11:00,50.1,37.2,29.97,ESE,104,0.0,1.0,61,0.00,,,0.00,0,Wunderground v.1.15,2013-05-26 12:11:00,
2013-05-26 07:13:00,50.1,36.7,29.97,SE,132,1.0,8.0,60,0.00,,,0.00,0,Wunderground v.1.15,2013-05-26 12:13:00,
2013-05-26 07:14:00,50.1,36.7,29.97,SE,138,2.0,11.0,60,0.00,,,0.00,0,Wunderground v.1.15,2013-05-26 12:14:00,
2013-05-26 07:16:00,50.1,36.7,29.97,NE,54,4.0,11.0,60,0.00,,,0.00,0,Wunderground v.1.15,2013-05-26 12:16:00,
2013-05-26 07:18:00,50.1,36.7,29.98,ENE,57,1.0,11.0,60,0.00,,,0.00,0,Wunderground v.1.15,2013-05-26 12:18:00,
2013-05-26 07:19:00,50.1,36.7,29.98,ESE,123,1.0,2.0,60,0.00,,,0.00,0,Wunderground v.1.15,2013-05-26 12:19:00,
2013-05-26 07:21:00,50.2,36.8,29.98,SE,124,5.0,5.0,60,0.00,,,0.00,0,Wunderground v.1.15,2013-05-26 12:21:00,
2013-05-26 07:23:00,50.2,36.4,29.98,SE,124,1.0,5.0,59,0.00,,,0.00,0,Wunderground v.1.15,2013-05-26 12:23:00,
2013-05-26 07:24:00,50.2,36.8,29.98,ESE,120,3.0,5.0,60,0.00,,,0.00,0,Wunderground v.1.15,2013-05-26 12:24:00,
2013-05-26 07:25:00,50.2,36.4,29.98,ENE,73,5.0,9.0,59,0.00,,,0.00,0,Wunderground v.1.15,2013-05-26 12:25:00,
2013-05-26 07:27:00,50.3,36.5,29.98,East,99,4.0,9.0,59,0.00,,,0.00,0,Wunderground v.1.15,2013-05-26 12:27:00,
2013-05-26 07:28:00,50.3,36.5,29.98,East,93,0.0,9.0,59,0.00,,,0.00,0,Wunderground v.1.15,2013-05-26 12:28:00,
2013-05-26 07:29:00,50.3,36.5,29.98,ENE,70,3.0,9.0,59,0.00,,,0.00,0,Wunderground v.1.15,2013-05-26 12:29:00,
2013-05-26 07:30:00,50.3,36.5,29.98,ENE,74,1.0,7.0,59,0.00,,,0.00,0,Wunderground v.1.15,2013-05-26 12:30:00,
2013-05-26 07:32:00,50.4,36.6,29.98,ENE,74,0.0,7.0,59,0.00,,,0.00,0,Wunderground v.1.15,2013-05-26 12:32:00,
2013-05-26 07:33:00,50.4,36.6,29.98,East,89,4.0,7.0,59,0.00,,,0.00,0,Wunderground v.1.15,2013-05-26 12:33:00,
2013-05-26 07:34:00,50.4,36.6,29.98,East,89,0.0,7.0,59,0.00,,,0.00,0,Wunderground v.1.15,2013-05-26 12:34:00,
2013-05-26 07:36:00,50.4,36.6,29.98,East,88,1.0,7.0,59,0.00,,,0.00,0,Wunderground v.1.15,2013-05-26 12:36:00,
2013-05-26 07:37:00,50.5,36.7,29.98,East,97,7.0,7.0,59,0.00,,,0.00,0,Wunderground v.1.15,2013-05-26 12:37:00,
2013-05-26 07:38:00,50.5,36.7,29.99,ESE,107,0.0,8.0,59,0.00,,,0.00,0,Wunderground v.1.15,2013-05-26 12:38:00,
2013-05-26 07:39:00,50.5,36.7,29.98,ESE,107,0.0,8.0,59,0.00,,,0.00,0,Wunderground v.1.15,2013-05-26 12:39:00,
2013-05-26 07:41:00,50.5,36.7,29.98,East,100,0.0,3.0,59,0.00,,,0.00,0,Wunderground v.1.15,2013-05-26 12:41:00,
2013-05-26 07:42:00,50.5,36.7,29.98,East,100,0.0,3.0,59,0.00,,,0.00,0,Wunderground v.1.15,2013-05-26 12:42:00,
2013-05-26 07:43:00,50.5,36.7,29.98,NE,56,5.0,7.0,59,0.00,,,0.00,0,Wunderground v.1.15,2013-05-26 12:43:00,
2013-05-26 07:44:00,50.5,36.7,29.98,SE,143,5.0,10.0,59,0.00,,,0.00,0,Wunderground v.1.15,2013-05-26 12:44:00,
2013-05-26 07:46:00,50.6,36.8,29.98,SE,142,3.0,10.0,59,0.00,,,0.00,0,Wunderground v.1.15,2013-05-26 12:46:00,
2013-05-26 07:47:00,50.6,36.8,29.98,East,84,3.0,10.0,59,0.00,,,0.00,0,Wunderground v.1.15,2013-05-26 12:47:00,
2013-05-26 07:48:00,50.6,36.8,29.98,East,84,4.0,10.0,59,0.00,,,0.00,0,Wunderground v.1.15,2013-05-26 12:48:00,
2013-05-26 07:49:00,50.6,36.8,29.98,East,84,0.0,10.0,59,0.00,,,0.00,0,Wunderground v.1.15,2013-05-26 12:49:00,
2013-05-26 07:51:00,50.6,37.2,29.98,NE,50,7.0,7.0,60,0.00,,,0.00,0,Wunderground v.1.15,2013-05-26 12:51:00,
2013-05-26 07:52:00,50.6,36.8,29.98,NE,54,3.0,8.0,59,0.00,,,0.00,0,Wunderground v.1.15,2013-05-26 12:52:00,
2013-05-26 07:53:00,50.6,36.8,29.97,NE,54,3.0,8.0,59,0.00,,,0.00,0,Wunderground v.1.15,2013-05-26 12:53:00,
2013-05-26 07:54:00,50.6,36.8,29.98,NE,54,3.0,8.0,59,0.00,,,0.00,0,Wunderground v.1.15,2013-05-26 12:54:00,
2013-05-26 07:55:00,50.6,36.8,29.98,SE,130,6.0,8.0,59,0.00,,,0.00,0,Wunderground v.1.15,2013-05-26 12:55:00,
2013-05-26 07:56:00,50.6,36.8,29.98,SE,130,0.0,8.0,59,0.00,,,0.00,0,Wunderground v.1.15,2013-05-26 12:56:00,
2013-05-26 07:57:00,50.6,36.8,29.98,SE,130,0.0,8.0,59,0.00,,,0.00,0,Wunderground v.1.15,2013-05-26 12:57:00,
2013-05-26 07:58:00,50.6,36.8,29.98,SE,142,4.0,10.0,59,0.00,,,0.00,0,Wunderground v.1.15,2013-05-26 12:58:00,
2013-05-26 07:59:00,50.6,36.8,29.98,SE,135,2.0,10.0,59,0.00,,,0.00,0,Wunderground v.1.15,2013-05-26 12:59:00,
2013-05-26 08:00:00,50.6,36.8,29.98,SE,135,1.0,4.0,59,0.00,,,0.00,0,Wunderground v.1.15,2013-05-26 13:00:00,
2013-05-26 08:02:00,50.6,36.8,29.98,East,85,4.0,7.0,59,0.00,,,0.00,0,Wunderground v.1.15,2013-05-26 13:02:00,
2013-05-26 08:03:00,50.6,36.8,29.98,SE,124,0.0,8.0,59,0.00,,,0.00,0,Wunderground v.1.15,2013-05-26 13:03:00,
2013-05-26 08:04:00,50.6,36.8,29.98,SE,125,1.0,8.0,59,0.00,,,0.00,0,Wunderground v.1.15,2013-05-26 13:04:00,
2013-05-26 08:05:00,50.6,36.8,29.98,SE,127,2.0,8.0,59,0.00,,,0.00,0,Wunderground v.1.15,2013-05-26 13:05:00,
2013-05-26 08:07:00,50.6,36.8,29.98,SE,125,0.0,8.0,59,0.00,,,0.00,0,Wunderground v.1.15,2013-05-26 13:07:00,
2013-05-26 08:08:00,50.6,36.8,29.99,ENE,70,5.0,8.0,59,0.00,,,0.00,0,Wunderground v.1.15,2013-05-26 13:08:00,
2013-05-26 08:10:00,50.7,36.9,29.98,ENE,70,0.0,0.0,59,0.00,,,0.00,0,Wunderground v.1.15,2013-05-26 13:10:00,
2013-05-26 08:12:00,50.7,36.9,29.99,SE,140,3.0,11.0,59,0.00,,,0.00,0,Wunderground v.1.15,2013-05-26 13:12:00,
2013-05-26 08:13:00,50.7,36.9,29.99,NE,48,6.0,11.0,59,0.00,,,0.00,0,Wunderground v.1.15,2013-05-26 13:13:00,
2013-05-26 08:15:00,50.6,36.8,29.98,NE,50,0.0,11.0,59,0.00,,,0.00,0,Wunderground v.1.15,2013-05-26 13:15:00,
2013-05-26 08:17:00,50.7,36.9,29.98,NE,50,0.0,11.0,59,0.00,,,0.00,0,Wunderground v.1.15,2013-05-26 13:17:00,
2013-05-26 08:18:00,50.7,36.9,29.98,NE,51,3.0,11.0,59,0.00,,,0.00,0,Wunderground v.1.15,2013-05-26 13:18:00,
2013-05-26 08:20:00,50.7,36.9,29.98,NE,51,0.0,4.0,59,0.00,,,0.00,0,Wunderground v.1.15,2013-05-26 13:20:00,
2013-05-26 08:21:00,50.7,36.9,29.98,NE,51,1.0,4.0,59,0.00,,,0.00,0,Wunderground v.1.15,2013-05-26 13:21:00,
2013-05-26 08:22:00,50.6,36.8,29.98,NE,52,0.0,5.0,59,0.00,,,0.00,0,Wunderground v.1.15,2013-05-26 13:22:00,
2013-05-26 08:24:00,50.6,36.8,29.98,SE,132,6.0,11.0,59,0.00,,,0.00,0,Wunderground v.1.15,2013-05-26 13:24:00,
2013-05-26 08:26:00,50.6,36.4,29.98,ENE,66,5.0,11.0,58,0.00,,,0.00,0,Wunderground v.1.15,2013-05-26 13:26:00,
2013-05-26 08:27:00,50.6,36.4,29.99,NE,53,1.0,11.0,58,0.00,,,0.00,0,Wunderground v.1.15,2013-05-26 13:27:00,
2013-05-26 08:28:00,50.6,36.4,29.99,NE,53,0.0,11.0,58,0.00,,,0.00,0,Wunderground v.1.15,2013-05-26 13:28:00,
2013-05-26 08:29:00,50.7,36.9,29.99,NE,56,9.0,11.0,59,0.00,,,0.00,0,Wunderground v.1.15,2013-05-26 13:29:00,
2013-05-26 08:31:00,50.7,36.5,29.99,NE,56,0.0,2.0,58,0.00,,,0.00,0,Wunderground v.1.15,2013-05-26 13:31:00,
2013-05-26 08:33:00,50.7,36.9,29.99,NE,56,1.0,3.0,59,0.00,,,0.00,0,Wunderground v.1.15,2013-05-26 13:33:00,
2013-05-26 08:34:00,50.7,36.5,29.99,East,99,1.0,6.0,58,0.00,,,0.00,0,Wunderground v.1.15,2013-05-26 13:34:00,
2013-05-26 08:36:00,50.7,36.5,29.99,East,94,0.0,6.0,58,0.00,,,0.00,0,Wunderground v.1.15,2013-05-26 13:36:00,
2013-05-26 08:38:00,50.8,36.5,29.98,East,89,2.0,6.0,58,0.00,,,0.00,0,Wunderground v.1.15,2013-05-26 13:38:00,
2013-05-26 08:39:00,50.8,36.5,29.98,East,89,1.0,6.0,58,0.00,,,0.00,0,Wunderground v.1.15,2013-05-26 13:39:00,
2013-05-26 08:41:00,50.8,37.0,29.98,East,89,1.0,4.0,59,0.00,,,0.00,0,Wunderground v.1.15,2013-05-26 13:41:00,
2013-05-26 08:43:00,50.9,36.6,29.98,ENE,76,1.0,5.0,58,0.00,,,0.00,0,Wunderground v.1.15,2013-05-26 13:43:00,
2013-05-26 08:44:00,50.9,37.1,29.98,ENE,78,4.0,9.0,59,0.00,,,0.00,0,Wunderground v.1.15,2013-05-26 13:44:00,
2013-05-26 08:46:00,51.0,37.2,29.98,ENE,68,6.0,9.0,59,0.00,,,0.00,0,Wunderground v.1.15,2013-05-26 13:46:00,
2013-05-26 08:48:00,51.0,36.7,29.98,ENE,68,0.0,9.0,58,0.00,,,0.00,0,Wunderground v.1.15,2013-05-26 13:48:00,
2013-05-26 08:49:00,51.1,36.8,29.97,ENE,68,0.0,9.0,58,0.00,,,0.00,0,Wunderground v.1.15,2013-05-26 13:49:00,
2013-05-26 08:51:00,51.1,37.3,29.97,ENE,64,1.0,6.0,59,0.00,,,0.00,0,Wunderground v.1.15,2013-05-26 13:51:00,
2013-05-26 08:53:00,51.2,36.9,29.97,ENE,69,1.0,7.0,58,0.00,,,0.00,0,Wunderground v.1.15,2013-05-26 13:53:00,
2013-05-26 08:54:00,51.2,36.5,29.98,SE,136,3.0,12.0,57,0.00,,,0.00,0,Wunderground v.1.15,2013-05-26 13:54:00,
2013-05-26 08:56:00,51.3,37.0,29.98,NE,52,2.0,12.0,58,0.00,,,0.00,0,Wunderground v.1.15,2013-05-26 13:56:00,
2013-05-26 08:58:00,51.3,37.0,29.98,SSE,160,8.0,12.0,58,0.00,,,0.00,0,Wunderground v.1.15,2013-05-26 13:58:00,
2013-05-26 08:59:00,51.3,36.6,29.97,ENE,63,3.0,3.0,57,0.00,,,0.00,0,Wunderground v.1.15,2013-05-26 13:59:00,
2013-05-26 09:01:00,51.4,37.1,29.97,ENE,64,2.0,5.0,58,0.00,,,0.00,0,Wunderground v.1.15,2013-05-26 14:01:00,
2013-05-26 09:03:00,51.4,36.7,29.97,SE,130,0.0,9.0,57,0.00,,,0.00,0,Wunderground v.1.15,2013-05-26 14:03:00,
2013-05-26 09:04:00,51.4,37.1,29.97,SE,131,2.0,9.0,58,0.00,,,0.00,0,Wunderground v.1.15,2013-05-26 14:04:00,
2013-05-26 09:06:00,51.5,37.2,29.97,SE,128,6.0,12.0,58,0.00,,,0.00,0,Wunderground v.1.15,2013-05-26 14:06:00,
2013-05-26 09:08:00,51.5,37.2,29.98,SE,125,1.0,12.0,58,0.00,,,0.00,0,Wunderground v.1.15,2013-05-26 14:08:00,
2013-05-26 09:09:00,51.5,37.2,29.98,SE,134,8.0,12.0,58,0.00,,,0.00,0,Wunderground v.1.15,2013-05-26 14:09:00,
2013-05-26 09:11:00,51.5,37.2,29.97,ENE,66,5.0,8.0,58,0.00,,,0.00,0,Wunderground v.1.15,2013-05-26 14:11:00,
2013-05-26 09:13:00,51.5,37.2,29.97,SE,133,3.0,8.0,58,0.00,,,0.00,0,Wunderground v.1.15,2013-05-26 14:13:00,
2013-05-26 09:14:00,51.5,37.2,29.97,East,79,3.0,8.0,58,0.00,,,0.00,0,Wunderground v.1.15,2013-05-26 14:14:00,
2013-05-26 09:16:00,51.6,37.3,29.97,ESE,116,0.0,8.0,58,0.00,,,0.00,0,Wunderground v.1.15,2013-05-26 14:16:00,
2013-05-26 09:18:00,51.6,37.7,29.97,SE,135,5.0,8.0,59,0.00,,,0.00,0,Wunderground v.1.15,2013-05-26 14:18:00,
2013-05-26 09:19:00,51.6,37.3,29.97,SE,135,0.0,8.0,58,0.00,,,0.00,0,Wunderground v.1.15,2013-05-26 14:19:00,
2013-05-26 09:20:00,51.6,37.3,29.98,SE,135,0.0,1.0,58,0.00,,,0.00,0,Wunderground v.1.15,2013-05-26 14:20:00,
2013-05-26 09:21:00,51.7,37.4,29.98,ENE,67,5.0,11.0,58,0.00,,,0.00,0,Wunderground v.1.15,2013-05-26 14:21:00,
2013-05-26 09:22:00,51.7,37.4,29.98,ENE,67,5.0,11.0,58,0.00,,,0.00,0,Wunderground v.1.15,2013-05-26 14:22:00,
2013-05-26 09:23:00,51.7,37.4,29.98,ESE,108,9.0,11.0,58,0.00,,,0.00,0,Wunderground v.1.15,2013-05-26 14:23:00,
2013-05-26 09:24:00,51.7,37.4,29.98,SE,146,6.0,11.0,58,0.00,,,0.00,0,Wunderground v.1.15,2013-05-26 14:24:00,
2013-05-26 09:25:00,51.7,36.9,29.98,SE,135,4.0,11.0,57,0.00,,,0.00,0,Wunderground v.1.15,2013-05-26 14:25:00,
2013-05-26 09:26:00,51.6,36.9,29.98,ENE,65,5.0,11.0,57,0.00,,,0.00,0,Wunderground v.1.15,2013-05-26 14:26:00,
2013-05-26 09:27:00,51.6,36.9,29.98,ENE,58,6.0,11.0,57,0.00,,,0.00,0,Wunderground v.1.15,2013-05-26 14:27:00,
2013-05-26 09:28:00,51.7,36.9,29.97,SE,139,2.0,11.0,57,0.00,,,0.00,0,Wunderground v.1.15,2013-05-26 14:28:00,
2013-05-26 09:29:00,51.6,36.9,29.97,SE,137,4.0,11.0,57,0.00,,,0.00,0,Wunderground v.1.15,2013-05-26 14:29:00,
2013-05-26 09:30:00,51.7,36.9,29.98,SE,137,5.0,7.0,57,0.00,,,0.00,0,Wunderground v.1.15,2013-05-26 14:30:00,
2013-05-26 09:32:00,51.6,36.9,29.98,SE,144,4.0,12.0,57,0.00,,,0.00,0,Wunderground v.1.15,2013-05-26 14:32:00,
2013-05-26 09:34:00,51.7,37.4,29.98,East,81,2.0,12.0,58,0.00,,,0.00,0,Wunderground v.1.15,2013-05-26 14:34:00,
2013-05-26 09:35:00,51.7,37.4,29.98,ENE,70,5.0,12.0,58,0.00,,,0.00,0,Wunderground v.1.15,2013-05-26 14:35:00,
2013-05-26 09:37:00,51.7,36.9,29.97,ESE,110,3.0,13.0,57,0.00,,,0.00,0,Wunderground v.1.15,2013-05-26 14:37:00,
2013-05-26 09:39:00,51.7,37.4,29.97,ENE,59,4.0,13.0,58,0.00,,,0.00,0,Wunderground v.1.15,2013-05-26 14:39:00,
2013-05-26 09:40:00,51.8,37.5,29.96,SE,135,9.0,9.0,58,0.00,,,0.00,0,Wunderground v.1.15,2013-05-26 14:40:00,
2013-05-26 09:42:00,51.8,37.5,29.96,SE,130,4.0,9.0,58,0.00,,,0.00,0,Wunderground v.1.15,2013-05-26 14:42:00,
2013-05-26 09:44:00,51.9,37.6,29.96,ESE,111,4.0,9.0,58,0.00,,,0.00,0,Wunderground v.1.15,2013-05-26 14:44:00,
2013-05-26 09:45:00,51.9,37.1,29.96,SE,129,4.0,12.0,57,0.00,,,0.00,0,Wunderground v.1.15,2013-05-26 14:45:00,
2013-05-26 09:47:00,52.0,37.2,29.96,ENE,63,5.0,12.0,57,0.00,,,0.00,0,Wunderground v.1.15,2013-05-26 14:47:00,
2013-05-26 09:49:00,52.0,37.2,29.95,East,93,7.0,12.0,57,0.00,,,0.00,0,Wunderground v.1.15,2013-05-26 14:49:00,
2013-05-26 09:51:00,52.1,36.9,29.95,ESE,106,5.0,16.0,56,0.00,,,0.00,0,Wunderground v.1.15,2013-05-26 14:51:00,
2013-05-26 09:52:00,52.1,36.4,29.95,ENE,78,6.0,16.0,55,0.00,,,0.00,0,Wunderground v.1.15,2013-05-26 14:52:00,
2013-05-26 09:54:00,52.1,36.4,29.95,SE,125,1.0,16.0,55,0.00,,,0.00,0,Wunderground v.1.15,2013-05-26 14:54:00,
2013-05-26 09:55:00,52.1,36.9,29.95,SE,132,20.0,20.0,56,0.00,,,0.00,0,Wunderground v.1.15,2013-05-26 14:55:00,
2013-05-26 09:56:00,52.2,37.0,29.95,ENE,75,6.0,21.0,56,0.00,,,0.00,0,Wunderground v.1.15,2013-05-26 14:56:00,
2013-05-26 09:57:00,52.3,37.1,29.95,ENE,61,5.0,21.0,56,0.00,,,0.00,0,Wunderground v.1.15,2013-05-26 14:57:00,
2013-05-26 09:59:00,52.3,36.6,29.95,SE,142,9.0,21.0,55,0.00,,,0.00,0,Wunderground v.1.15,2013-05-26 14:59:00,
2013-05-26 10:00:00,52.3,36.6,29.95,SE,138,6.0,9.0,55,0.00,,,0.00,0,Wunderground v.1.15,2013-05-26 15:00:00,
2013-05-26 10:01:00,52.3,36.6,29.95,ENE,67,6.0,12.0,55,0.00,,,0.00,0,Wunderground v.1.15,2013-05-26 15:01:00,
2013-05-26 10:02:00,52.3,36.6,29.94,SE,132,10.0,12.0,55,0.00,,,0.00,0,Wunderground v.1.15,2013-05-26 15:02:00,
2013-05-26 10:03:00,52.2,36.5,29.95,East,87,4.0,12.0,55,0.00,,,0.00,0,Wunderground v.1.15,2013-05-26 15:03:00,
2013-05-26 10:04:00,52.2,36.5,29.94,East,86,9.0,18.0,55,0.00,,,0.00,0,Wunderground v.1.15,2013-05-26 15:04:00,
2013-05-26 10:05:00,52.2,36.5,29.94,ESE,114,6.0,18.0,55,0.00,,,0.00,0,Wunderground v.1.15,2013-05-26 15:05:00,
2013-05-26 10:06:00,52.2,36.5,29.94,ESE,123,7.0,18.0,55,0.00,,,0.00,0,Wunderground v.1.15,2013-05-26 15:06:00,
2013-05-26 10:08:00,52.1,36.4,29.94,SE,133,6.0,18.0,55,0.00,,,0.00,0,Wunderground v.1.15,2013-05-26 15:08:00,
2013-05-26 10:09:00,52.2,37.0,29.94,ESE,122,9.0,9.0,56,0.00,,,0.00,0,Wunderground v.1.15,2013-05-26 15:09:00,
2013-05-26 10:10:00,52.2,37.0,29.94,ESE,118,13.0,13.0,56,0.00,,,0.00,0,Wunderground v.1.15,2013-05-26 15:10:00,
2013-05-26 10:11:00,52.2,36.5,29.93,ESE,114,8.0,16.0,55,0.00,,,0.00,0,Wunderground v.1.15,2013-05-26 15:11:00,
2013-05-26 10:13:00,52.1,36.4,29.94,SE,125,5.0,16.0,55,0.00,,,0.00,0,Wunderground v.1.15,2013-05-26 15:13:00,
2013-05-26 10:14:00,52.0,36.3,29.94,SE,125,5.0,16.0,55,0.00,,,0.00,0,Wunderground v.1.15,2013-05-26 15:14:00,
2013-05-26 10:15:00,52.0,36.8,29.94,ENE,69,5.0,16.0,56,0.00,,,0.00,0,Wunderground v.1.15,2013-05-26 15:15:00,
2013-05-26 10:16:00,52.0,36.3,29.95,ESE,109,6.0,16.0,55,0.00,,,0.00,0,Wunderground v.1.15,2013-05-26 15:16:00,
2013-05-26 10:18:00,51.8,36.1,29.94,ENE,72,6.0,17.0,55,0.00,,,0.00,0,Wunderground v.1.15,2013-05-26 15:18:00,
2013-05-26 10:19:00,51.8,36.1,29.94,NE,49,10.0,10.0,55,0.00,,,0.00,0,Wunderground v.1.15,2013-05-26 15:19:00,
2013-05-26 10:20:00,51.8,36.1,29.94,ENE,65,6.0,10.0,55,0.00,,,0.00,0,Wunderground v.1.15,2013-05-26 15:20:00,
2013-05-26 10:21:00,51.7,36.0,29.95,SE,130,4.0,10.0,55,0.00,,,0.00,0,Wunderground v.1.15,2013-05-26 15:21:00,
2013-05-26 10:23:00,51.6,36.4,29.95,NE,51,2.0,10.0,56,0.00,,,0.00,0,Wunderground v.1.15,2013-05-26 15:23:00,
2013-05-26 10:24:00,51.6,36.4,29.95,ESE,118,5.0,11.0,56,0.00,,,0.00,0,Wunderground v.1.15,2013-05-26 15:24:00,
2013-05-26 10:25:00,51.6,36.4,29.95,ESE,116,0.0,11.0,56,0.00,,,0.00,0,Wunderground v.1.15,2013-05-26 15:25:00,
2013-05-26 10:27:00,51.6,36.4,29.95,SE,139,2.0,11.0,56,0.00,,,0.00,0,Wunderground v.1.15,2013-05-26 15:27:00,
2013-05-26 10:28:00,51.5,36.3,29.95,SE,140,0.0,11.0,56,0.00,,,0.00,0,Wunderground v.1.15,2013-05-26 15:28:00,
2013-05-26 10:29:00,51.5,36.3,29.95,SE,140,7.0,7.0,56,0.00,,,0.00,0,Wunderground v.1.15,2013-05-26 15:29:00,
2013-05-26 10:30:00,51.5,36.3,29.95,SE,140,2.0,7.0,56,0.00,,,0.00,0,Wunderground v.1.15,2013-05-26 15:30:00,
2013-05-26 10:31:00,51.5,36.3,29.95,ENE,57,9.0,9.0,56,0.00,,,0.00,0,Wunderground v.1.15,2013-05-26 15:31:00,
2013-05-26 10:32:00,51.5,36.3,29.95,ENE,70,0.0,9.0,56,0.00,,,0.00,0,Wunderground v.1.15,2013-05-26 15:32:00,
2013-05-26 10:33:00,51.5,36.3,29.95,SSE,155,5.0,10.0,56,0.00,,,0.00,0,Wunderground v.1.15,2013-05-26 15:33:00,
2013-05-26 10:34:00,51.5,36.3,29.95,East,80,4.0,10.0,56,0.00,,,0.00,0,Wunderground v.1.15,2013-05-26 15:34:00,
2013-05-26 10:35:00,51.5,36.3,29.95,East,85,2.0,10.0,56,0.00,,,0.00,0,Wunderground v.1.15,2013-05-26 15:35:00,
2013-05-26 10:36:00,51.5,36.3,29.95,East,85,0.0,10.0,56,0.00,,,0.00,0,Wunderground v.1.15,2013-05-26 15:36:00,
2013-05-26 10:37:00,51.5,35.9,29.95,SE,134,3.0,10.0,55,0.00,,,0.00,0,Wunderground v.1.15,2013-05-26 15:37:00,
2013-05-26 10:38:00,51.5,36.3,29.95,SSE,165,9.0,10.0,56,0.00,,,0.00,0,Wunderground v.1.15,2013-05-26 15:38:00,
2013-05-26 10:39:00,51.6,36.4,29.95,ENE,66,5.0,6.0,56,0.00,,,0.00,0,Wunderground v.1.15,2013-05-26 15:39:00,
2013-05-26 10:40:00,51.6,36.4,29.95,ENE,66,0.0,7.0,56,0.00,,,0.00,0,Wunderground v.1.15,2013-05-26 15:40:00,
2013-05-26 10:41:00,51.6,36.4,29.95,ENE,66,0.0,7.0,56,0.00,,,0.00,0,Wunderground v.1.15,2013-05-26 15:41:00,
2013-05-26 10:43:00,51.6,35.9,29.95,SE,128,1.0,9.0,55,0.00,,,0.00,0,Wunderground v.1.15,2013-05-26 15:43:00,
2013-05-26 10:44:00,51.6,35.9,29.95,NE,55,7.0,9.0,55,0.00,,,0.00,0,Wunderground v.1.15,2013-05-26 15:44:00,
2013-05-26 10:45:00,51.6,35.9,29.95,NE,52,2.0,9.0,55,0.00,,,0.00,0,Wunderground v.1.15,2013-05-26 15:45:00,
2013-05-26 10:46:00,51.6,35.9,29.96,ENE,64,3.0,9.0,55,0.00,,,0.00,0,Wunderground v.1.15,2013-05-26 15:46:00,
2013-05-26 10:48:00,51.7,36.0,29.95,SE,143,0.0,17.0,55,0.00,,,0.00,0,Wunderground v.1.15,2013-05-26 15:48:00,
2013-05-26 10:49:00,51.7,36.0,29.95,SE,144,6.0,17.0,55,0.00,,,0.00,0,Wunderground v.1.15,2013-05-26 15:49:00,
2013-05-26 10:50:00,51.7,36.0,29.95,SE,140,0.0,4.0,55,0.00,,,0.00,0,Wunderground v.1.15,2013-05-26 15:50:00,
2013-05-26 10:52:00,51.7,36.0,29.95,SSE,162,8.0,11.0,55,0.00,,,0.00,0,Wunderground v.1.15,2013-05-26 15:52:00,
2013-05-26 10:53:00,51.7,36.0,29.95,ENE,65,4.0,14.0,55,0.00,,,0.00,0,Wunderground v.1.15,2013-05-26 15:53:00,
2013-05-26 10:54:00,51.7,35.6,29.96,East,80,4.0,14.0,54,0.00,,,0.00,0,Wunderground v.1.15,2013-05-26 15:54:00,
2013-05-26 10:55:00,51.7,35.6,29.95,ESE,117,8.0,15.0,54,0.00,,,0.00,0,Wunderground v.1.15,2013-05-26 15:55:00,
2013-05-26 10:57:00,51.7,35.1,29.96,ESE,102,5.0,15.0,53,0.00,,,0.00,0,Wunderground v.1.15,2013-05-26 15:57:00,
2013-05-26 10:58:00,51.7,35.6,29.95,SE,132,10.0,15.0,54,0.00,,,0.00,0,Wunderground v.1.15,2013-05-26 15:58:00,
2013-05-26 10:59:00,51.7,35.6,29.96,ESE,104,4.0,15.0,54,0.00,,,0.00,0,Wunderground v.1.15,2013-05-26 15:59:00,
2013-05-26 11:00:00,51.7,35.1,29.96,SE,136,6.0,10.0,53,0.00,,,0.00,0,Wunderground v.1.15,2013-05-26 16:00:00,
2013-05-26 11:02:00,51.7,35.1,29.96,SE,138,6.0,15.0,53,0.00,,,0.00,0,Wunderground v.1.15,2013-05-26 16:02:00,
2013-05-26 11:04:00,51.6,35.0,29.96,SE,139,1.0,15.0,53,0.00,,,0.00,0,Wunderground v.1.15,2013-05-26 16:04:00,
2013-05-26 11:05:00,51.7,35.6,29.95,SE,124,5.0,15.0,54,0.00,,,0.00,0,Wunderground v.1.15,2013-05-26 16:05:00,
2013-05-26 11:07:00,51.7,35.6,29.96,SE,135,8.0,15.0,54,0.00,,,0.00,0,Wunderground v.1.15,2013-05-26 16:07:00,
2013-05-26 11:09:00,51.7,35.6,29.96,SE,130,4.0,15.0,54,0.00,,,0.00,0,Wunderground v.1.15,2013-05-26 16:09:00,
2013-05-26 11:10:00,51.6,35.0,29.96,ESE,103,3.0,6.0,53,0.00,,,0.00,0,Wunderground v.1.15,2013-05-26 16:10:00,
2013-05-26 11:13:00,51.6,35.0,29.96,SE,139,3.0,12.0,53,0.00,,,0.00,0,Wunderground v.1.15,2013-05-26 16:13:00,
2013-05-26 11:14:00,51.5,34.9,29.96,NE,35,3.0,12.0,53,0.00,,,0.00,0,Wunderground v.1.15,2013-05-26 16:14:00,
2013-05-26 11:15:00,51.6,35.5,29.96,NE,41,4.0,12.0,54,0.00,,,0.00,0,Wunderground v.1.15,2013-05-26 16:15:00,
2013-05-26 11:16:00,51.5,35.4,29.96,NE,41,2.0,12.0,54,0.00,,,0.00,0,Wunderground v.1.15,2013-05-26 16:16:00,
2013-05-26 11:18:00,51.5,35.4,29.97,NE,51,1.0,12.0,54,0.00,,,0.00,0,Wunderground v.1.15,2013-05-26 16:18:00,
2013-05-26 11:19:00,51.5,35.4,29.97,ENE,57,4.0,12.0,54,0.00,,,0.00,0,Wunderground v.1.15,2013-05-26 16:19:00,
2013-05-26 11:20:00,51.5,35.9,29.97,ENE,57,2.0,3.0,55,0.00,,,0.00,0,Wunderground v.1.15,2013-05-26 16:20:00,
2013-05-26 11:21:00,51.5,35.9,29.97,SE,129,7.0,17.0,55,0.00,,,0.00,0,Wunderground v.1.15,2013-05-26 16:21:00,
2013-05-26 11:23:00,51.5,35.4,29.97,SE,137,3.0,17.0,54,0.00,,,0.00,0,Wunderground v.1.15,2013-05-26 16:23:00,
2013-05-26 11:24:00,51.5,35.4,29.97,SE,137,2.0,17.0,54,0.00,,,0.00,0,Wunderground v.1.15,2013-05-26 16:24:00,
2013-05-26 11:25:00,51.5,35.4,29.97,SE,132,4.0,17.0,54,0.00,,,0.00,0,Wunderground v.1.15,2013-05-26 16:25:00,
2013-05-26 11:26:00,51.5,35.4,29.97,SE,131,2.0,17.0,54,0.00,,,0.00,0,Wunderground v.1.15,2013-05-26 16:26:00,
2013-05-26 11:28:00,51.5,35.4,29.97,SE,129,5.0,17.0,54,0.00,,,0.00,0,Wunderground v.1.15,2013-05-26 16:28:00,
2013-05-26 11:29:00,51.4,35.3,29.98,SSE,147,2.0,17.0,54,0.00,,,0.00,0,Wunderground v.1.15,2013-05-26 16:29:00,
2013-05-26 11:30:00,51.4,35.3,29.97,SE,146,1.0,2.0,54,0.00,,,0.00,0,Wunderground v.1.15,2013-05-26 16:30:00,
2013-05-26 11:31:00,51.4,35.8,29.98,SE,146,0.0,3.0,55,0.00,,,0.00,0,Wunderground v.1.15,2013-05-26 16:31:00,
2013-05-26 11:33:00,51.4,35.8,29.97,SE,140,0.0,4.0,55,0.00,,,0.00,0,Wunderground v.1.15,2013-05-26 16:33:00,
2013-05-26 11:34:00,51.4,35.8,29.97,SE,140,4.0,5.0,55,0.00,,,0.00,0,Wunderground v.1.15,2013-05-26 16:34:00,
2013-05-26 11:35:00,51.4,35.8,29.97,SE,137,1.0,7.0,55,0.00,,,0.00,0,Wunderground v.1.15,2013-05-26 16:35:00,
2013-05-26 11:36:00,51.4,35.8,29.98,ENE,67,5.0,7.0,55,0.00,,,0.00,0,Wunderground v.1.15,2013-05-26 16:36:00,
2013-05-26 11:38:00,51.4,35.8,29.98,ENE,57,0.0,9.0,55,0.00,,,0.00,0,Wunderground v.1.15,2013-05-26 16:38:00,
2013-05-26 11:39:00,51.4,35.8,29.98,ENE,57,5.0,9.0,55,0.00,,,0.00,0,Wunderground v.1.15,2013-05-26 16:39:00,
2013-05-26 11:40:00,51.4,35.8,29.98,ENE,60,5.0,5.0,55,0.00,,,0.00,0,Wunderground v.1.15,2013-05-26 16:40:00,
2013-05-26 11:41:00,51.4,35.8,29.98,ESE,119,5.0,9.0,55,0.00,,,0.00,0,Wunderground v.1.15,2013-05-26 16:41:00,
2013-05-26 11:43:00,51.4,35.8,29.98,SE,132,1.0,9.0,55,0.00,,,0.00,0,Wunderground v.1.15,2013-05-26 16:43:00,
2013-05-26 11:44:00,51.4,35.8,29.98,SE,129,7.0,9.0,55,0.00,,,0.00,0,Wunderground v.1.15,2013-05-26 16:44:00,
2013-05-26 11:45:00,51.5,35.9,29.97,SSE,149,2.0,9.0,55,0.00,,,0.00,0,Wunderground v.1.15,2013-05-26 16:45:00,
2013-05-26 11:46:00,51.5,35.9,29.97,SSE,149,2.0,9.0,55,0.00,,,0.00,0,Wunderground v.1.15,2013-05-26 16:46:00,
2013-05-26 11:48:00,51.5,35.9,29.98,East,86,5.0,9.0,55,0.00,,,0.00,0,Wunderground v.1.15,2013-05-26 16:48:00,
2013-05-26 11:49:00,51.5,35.9,29.98,SE,132,11.0,15.0,55,0.00,,,0.00,0,Wunderground v.1.15,2013-05-26 16:49:00,
2013-05-26 11:50:00,51.5,35.9,29.98,SE,138,5.0,14.0,55,0.00,,,0.00,0,Wunderground v.1.15,2013-05-26 16:50:00,
2013-05-26 11:51:00,51.5,36.3,29.98,SSE,153,7.0,14.0,56,0.00,,,0.00,0,Wunderground v.1.15,2013-05-26 16:51:00,
2013-05-26 11:52:00,51.4,36.2,29.97,SE,142,5.0,14.0,56,0.00,,,0.00,0,Wunderground v.1.15,2013-05-26 16:52:00,
2013-05-26 11:53:00,51.4,36.2,29.97,SE,128,9.0,15.0,56,0.00,,,0.00,0,Wunderground v.1.15,2013-05-26 16:53:00,
2013-05-26 11:54:00,51.3,36.1,29.98,SE,135,9.0,15.0,56,0.00,,,0.00,0,Wunderground v.1.15,2013-05-26 16:54:00,
2013-05-26 11:56:00,51.2,36.0,29.98,ESE,120,9.0,15.0,56,0.00,,,0.00,0,Wunderground v.1.15,2013-05-26 16:56:00,
2013-05-26 11:57:00,51.2,36.0,29.98,ESE,109,4.0,15.0,56,0.00,,,0.00,0,Wunderground v.1.15,2013-05-26 16:57:00,
2013-05-26 11:58:00,51.1,35.9,29.98,ENE,68,8.0,15.0,56,0.00,,,0.00,0,Wunderground v.1.15,2013-05-26 16:58:00,
2013-05-26 11:59:00,51.1,35.9,29.98,East,86,4.0,15.0,56,0.00,,,0.00,0,Wunderground v.1.15,2013-05-26 16:59:00,
2013-05-26 12:01:00,51.1,35.9,29.98,SSE,153,12.0,12.0,56,0.00,,,0.00,0,Wunderground v.1.15,2013-05-26 17:01:00,
2013-05-26 12:02:00,51.0,35.8,29.98,SE,139,11.0,12.0,56,0.00,,,0.00,0,Wunderground v.1.15,2013-05-26 17:02:00,
2013-05-26 12:03:00,51.0,36.3,29.98,SE,134,9.0,13.0,57,0.00,,,0.00,0,Wunderground v.1.15,2013-05-26 17:03:00,
2013-05-26 12:04:00,51.0,35.8,29.98,SE,139,5.0,13.0,56,0.00,,,0.00,0,Wunderground v.1.15,2013-05-26 17:04:00,
2013-05-26 12:06:00,51.0,35.8,29.98,SE,126,8.0,13.0,56,0.00,,,0.00,0,Wunderground v.1.15,2013-05-26 17:06:00,
2013-05-26 12:07:00,51.0,35.8,29.98,ESE,106,1.0,13.0,56,0.00,,,0.00,0,Wunderground v.1.15,2013-05-26 17:07:00,
2013-05-26 12:08:00,50.9,35.7,29.98,ESE,111,4.0,13.0,56,0.00,,,0.00,0,Wunderground v.1.15,2013-05-26 17:08:00,
2013-05-26 12:09:00,51.0,35.8,29.98,SE,133,13.0,13.0,56,0.00,,,0.00,0,Wunderground v.1.15,2013-05-26 17:09:00,
2013-05-26 12:11:00,51.0,35.4,29.98,ESE,118,3.0,15.0,55,0.00,,,0.00,0,Wunderground v.1.15,2013-05-26 17:11:00,
2013-05-26 12:12:00,51.0,34.9,29.98,NE,50,5.0,15.0,54,0.00,,,0.00,0,Wunderground v.1.15,2013-05-26 17:12:00,
2013-05-26 12:13:00,51.0,34.9,29.98,ENE,76,4.0,15.0,54,0.00,,,0.00,0,Wunderground v.1.15,2013-05-26 17:13:00,
2013-05-26 12:14:00,51.1,35.0,29.98,ENE,76,1.0,15.0,54,0.00,,,0.00,0,Wunderground v.1.15,2013-05-26 17:14:00,
2013-05-26 12:16:00,51.1,35.0,29.99,SE,141,5.0,15.0,54,0.00,,,0.00,0,Wunderground v.1.15,2013-05-26 17:16:00,
2013-05-26 12:17:00,51.1,35.0,29.98,SE,130,1.0,15.0,54,0.00,,,0.00,0,Wunderground v.1.15,2013-05-26 17:17:00,
2013-05-26 12:19:00,51.1,35.0,29.99,East,90,4.0,15.0,54,0.00,,,0.00,0,Wunderground v.1.15,2013-05-26 17:19:00,
2013-05-26 12:21:00,51.1,35.0,29.98,ESE,115,5.0,11.0,54,0.00,,,0.00,0,Wunderground v.1.15,2013-05-26 17:21:00,
2013-05-26 12:22:00,51.1,35.0,29.98,SE,129,2.0,11.0,54,0.00,,,0.00,0,Wunderground v.1.15,2013-05-26 17:22:00,
2013-05-26 12:24:00,51.1,35.0,29.98,NE,41,4.0,11.0,54,0.00,,,0.00,0,Wunderground v.1.15,2013-05-26 17:24:00,
2013-05-26 12:25:00,51.1,35.0,29.98,East,93,6.0,11.0,54,0.00,,,0.00,0,Wunderground v.1.15,2013-05-26 17:25:00,
2013-05-26 12:26:00,51.1,35.0,29.98,ESE,116,5.0,11.0,54,0.00,,,0.00,0,Wunderground v.1.15,2013-05-26 17:26:00,
2013-05-26 12:27:00,51.1,35.0,29.97,ESE,105,3.0,11.0,54,0.00,,,0.00,0,Wunderground v.1.15,2013-05-26 17:27:00,
2013-05-26 12:29:00,51.1,35.0,29.98,ESE,121,9.0,11.0,54,0.00,,,0.00,0,Wunderground v.1.15,2013-05-26 17:29:00,
2013-05-26 12:30:00,51.1,35.0,29.98,SE,146,4.0,7.0,54,0.00,,,0.00,0,Wunderground v.1.15,2013-05-26 17:30:00,
2013-05-26 12:31:00,51.1,35.0,29.98,SE,143,1.0,8.0,54,0.00,,,0.00,0,Wunderground v.1.15,2013-05-26 17:31:00,
2013-05-26 12:32:00,51.1,35.0,29.98,SE,143,4.0,9.0,54,0.00,,,0.00,0,Wunderground v.1.15,2013-05-26 17:32:00,
2013-05-26 12:34:00,51.0,34.9,29.98,ESE,109,5.0,10.0,54,0.00,,,0.00,0,Wunderground v.1.15,2013-05-26 17:34:00,
2013-05-26 12:35:00,51.0,34.9,29.97,ESE,122,7.0,16.0,54,0.00,,,0.00,0,Wunderground v.1.15,2013-05-26 17:35:00,
2013-05-26 12:36:00,51.0,34.9,29.97,SSE,166,9.0,16.0,54,0.00,,,0.00,0,Wunderground v.1.15,2013-05-26 17:36:00,
2013-05-26 12:37:00,51.0,34.9,29.97,SE,126,7.0,16.0,54,0.00,,,0.00,0,Wunderground v.1.15,2013-05-26 17:37:00,
2013-05-26 12:39:00,51.0,35.4,29.98,ESE,108,2.0,16.0,55,0.00,,,0.00,0,Wunderground v.1.15,2013-05-26 17:39:00,
2013-05-26 12:40:00,51.0,35.4,29.97,ESE,108,1.0,5.0,55,0.00,,,0.00,0,Wunderground v.1.15,2013-05-26 17:40:00,
2013-05-26 12:41:00,51.0,35.4,29.97,ESE,111,4.0,7.0,55,0.00,,,0.00,0,Wunderground v.1.15,2013-05-26 17:41:00,
2013-05-26 12:42:00,51.0,35.8,29.98,East,91,2.0,7.0,56,0.00,,,0.00,0,Wunderground v.1.15,2013-05-26 17:42:00,
2013-05-26 12:44:00,51.0,35.8,29.97,SE,138,3.0,11.0,56,0.00,,,0.00,0,Wunderground v.1.15,2013-05-26 17:44:00,
2013-05-26 12:45:00,50.9,35.7,29.97,East,98,1.0,11.0,56,0.00,,,0.00,0,Wunderground v.1.15,2013-05-26 17:45:00,
2013-05-26 12:46:00,51.0,35.8,29.97,East,92,3.0,11.0,56,0.00,,,0.00,0,Wunderground v.1.15,2013-05-26 17:46:00,
2013-05-26 12:47:00,51.0,35.8,29.97,East,92,4.0,11.0,56,0.00,,,0.00,0,Wunderground v.1.15,2013-05-26 17:47:00,
2013-05-26 12:49:00,51.0,35.8,29.97,East,93,4.0,11.0,56,0.00,,,0.00,0,Wunderground v.1.15,2013-05-26 17:49:00,
2013-05-26 12:50:00,51.0,36.3,29.97,ESE,104,4.0,8.0,57,0.00,,,0.00,0,Wunderground v.1.15,2013-05-26 17:50:00,
2013-05-26 12:52:00,51.0,36.3,29.97,SE,133,6.0,10.0,57,0.00,,,0.00,0,Wunderground v.1.15,2013-05-26 17:52:00,
2013-05-26 12:53:00,50.9,35.7,29.98,SE,146,3.0,14.0,56,0.00,,,0.00,0,Wunderground v.1.15,2013-05-26 17:53:00,
2013-05-26 12:54:00,50.9,35.7,29.97,ENE,64,7.0,14.0,56,0.00,,,0.00,0,Wunderground v.1.15,2013-05-26 17:54:00,
2013-05-26 12:56:00,50.8,35.7,29.97,SE,137,7.0,14.0,56,0.00,,,0.00,0,Wunderground v.1.15,2013-05-26 17:56:00,
2013-05-26 12:57:00,50.8,35.7,29.97,SE,136,6.0,14.0,56,0.00,,,0.00,0,Wunderground v.1.15,2013-05-26 17:57:00,
2013-05-26 12:58:00,50.8,36.1,29.97,SE,132,5.0,14.0,57,0.00,,,0.00,0,Wunderground v.1.15,2013-05-26 17:58:00,
2013-05-26 12:59:00,50.8,36.1,29.97,ESE,104,8.0,14.0,57,0.00,,,0.00,0,Wunderground v.1.15,2013-05-26 17:59:00,
2013-05-26 13:01:00,50.8,36.1,29.97,ESE,115,4.0,14.0,57,0.00,,,0.00,0,Wunderground v.1.15,2013-05-26 18:01:00,
2013-05-26 13:02:00,50.8,36.5,29.96,ENE,74,4.0,14.0,58,0.00,,,0.00,0,Wunderground v.1.15,2013-05-26 18:02:00,
2013-05-26 13:03:00,50.8,36.5,29.96,ENE,69,6.0,14.0,58,0.00,,,0.00,0,Wunderground v.1.15,2013-05-26 18:03:00,
2013-05-26 13:04:00,50.9,36.6,29.96,SE,125,7.0,14.0,58,0.00,,,0.00,0,Wunderground v.1.15,2013-05-26 18:04:00,
2013-05-26 13:06:00,50.9,36.6,29.96,ENE,75,5.0,14.0,58,0.00,,,0.00,0,Wunderground v.1.15,2013-05-26 18:06:00,
2013-05-26 13:07:00,50.9,36.6,29.96,East,85,3.0,14.0,58,0.00,,,0.00,0,Wunderground v.1.15,2013-05-26 18:07:00,
2013-05-26 13:08:00,51.0,36.7,29.96,ESE,111,12.0,14.0,58,0.00,,,0.00,0,Wunderground v.1.15,2013-05-26 18:08:00,
2013-05-26 13:09:00,51.0,36.7,29.96,SE,127,5.0,5.0,58,0.00,,,0.00,0,Wunderground v.1.15,2013-05-26 18:09:00,
2013-05-26 13:11:00,51.1,36.8,29.96,East,101,2.0,8.0,58,0.00,,,0.00,0,Wunderground v.1.15,2013-05-26 18:11:00,
2013-05-26 13:12:00,51.1,36.8,29.96,ENE,74,0.0,12.0,58,0.00,,,0.00,0,Wunderground v.1.15,2013-05-26 18:12:00,
2013-05-26 13:13:00,51.1,36.8,29.96,SE,140,3.0,12.0,58,0.00,,,0.00,0,Wunderground v.1.15,2013-05-26 18:13:00,
2013-05-26 13:15:00,51.2,36.9,29.96,East,92,4.0,12.0,58,0.00,,,0.00,0,Wunderground v.1.15,2013-05-26 18:15:00,
2013-05-26 13:17:00,51.2,37.4,29.96,ENE,73,4.0,12.0,59,0.00,,,0.00,0,Wunderground v.1.15,2013-05-26 18:17:00,
2013-05-26 13:18:00,51.3,37.4,29.96,ENE,73,4.0,12.0,59,0.00,,,0.00,0,Wunderground v.1.15,2013-05-26 18:18:00,
2013-05-26 13:20:00,51.4,37.5,29.96,ENE,74,6.0,8.0,59,0.00,,,0.00,0,Wunderground v.1.15,2013-05-26 18:20:00,
2013-05-26 13:22:00,51.4,37.1,29.96,ENE,76,8.0,15.0,58,0.00,,,0.00,0,Wunderground v.1.15,2013-05-26 18:22:00,
2013-05-26 13:23:00,51.4,37.1,29.96,ENE,77,11.0,15.0,58,0.00,,,0.00,0,Wunderground v.1.15,2013-05-26 18:23:00,
2013-05-26 13:25:00,51.3,37.0,29.97,ENE,61,4.0,15.0,58,0.00,,,0.00,0,Wunderground v.1.15,2013-05-26 18:25:00,
2013-05-26 13:27:00,51.4,37.5,29.96,ESE,118,1.0,15.0,59,0.00,,,0.00,0,Wunderground v.1.15,2013-05-26 18:27:00,
2013-05-26 13:28:00,51.4,37.5,29.97,ESE,116,4.0,15.0,59,0.00,,,0.00,0,Wunderground v.1.15,2013-05-26 18:28:00,
2013-05-26 13:30:00,51.4,37.5,29.96,East,94,3.0,6.0,59,0.00,,,0.00,0,Wunderground v.1.15,2013-05-26 18:30:00,
2013-05-26 13:32:00,51.4,37.5,29.96,ENE,67,7.0,15.0,59,0.00,,,0.00,0,Wunderground v.1.15,2013-05-26 18:32:00,
2013-05-26 13:33:00,51.4,37.5,29.97,East,79,6.0,15.0,59,0.00,,,0.00,0,Wunderground v.1.15,2013-05-26 18:33:00,
2013-05-26 13:34:00,51.5,37.6,29.97,East,92,5.0,15.0,59,0.00,,,0.00,0,Wunderground v.1.15,2013-05-26 18:34:00,
2013-05-26 13:35:00,51.5,37.6,29.96,ENE,60,4.0,17.0,59,0.00,,,0.00,0,Wunderground v.1.15,2013-05-26 18:35:00,
2013-05-26 13:37:00,51.4,38.0,29.96,ESE,102,5.0,17.0,60,0.00,,,0.00,0,Wunderground v.1.15,2013-05-26 18:37:00,
2013-05-26 13:38:00,51.4,38.0,29.96,SE,125,9.0,17.0,60,0.00,,,0.00,0,Wunderground v.1.15,2013-05-26 18:38:00,
2013-05-26 13:39:00,51.3,37.9,29.96,East,100,7.0,17.0,60,0.00,,,0.00,0,Wunderground v.1.15,2013-05-26 18:39:00,
2013-05-26 13:40:00,51.3,37.9,29.96,East,81,5.0,15.0,60,0.00,,,0.00,0,Wunderground v.1.15,2013-05-26 18:40:00,
2013-05-26 13:42:00,51.3,38.3,29.96,East,84,6.0,15.0,61,0.00,,,0.00,0,Wunderground v.1.15,2013-05-26 18:42:00,
2013-05-26 13:43:00,51.3,38.3,29.96,East,80,5.0,15.0,61,0.00,,,0.00,0,Wunderground v.1.15,2013-05-26 18:43:00,
2013-05-26 13:44:00,51.3,38.3,29.96,NE,46,8.0,15.0,61,0.00,,,0.00,0,Wunderground v.1.15,2013-05-26 18:44:00,
2013-05-26 13:45:00,51.3,38.7,29.96,NE,54,6.0,15.0,62,0.00,,,0.00,0,Wunderground v.1.15,2013-05-26 18:45:00,
2013-05-26 13:47:00,51.3,38.7,29.97,ENE,60,5.0,15.0,62,0.00,,,0.00,0,Wunderground v.1.15,2013-05-26 18:47:00,
2013-05-26 13:48:00,51.3,38.7,29.96,SE,132,12.0,15.0,62,0.00,,,0.00,0,Wunderground v.1.15,2013-05-26 18:48:00,
2013-05-26 13:49:00,51.3,38.7,29.96,ENE,72,6.0,15.0,62,0.00,,,0.00,0,Wunderground v.1.15,2013-05-26 18:49:00,
2013-05-26 13:51:00,51.2,39.0,29.96,SE,129,8.0,16.0,63,0.00,,,0.00,0,Wunderground v.1.15,2013-05-26 18:51:00,
2013-05-26 13:53:00,51.2,38.6,29.96,East,86,6.0,16.0,62,0.00,,,0.00,0,Wunderground v.1.15,2013-05-26 18:53:00,
2013-05-26 13:54:00,51.2,39.0,29.96,ENE,60,4.0,16.0,63,0.00,,,0.00,0,Wunderground v.1.15,2013-05-26 18:54:00,
2013-05-26 13:56:00,51.4,39.2,29.96,East,83,6.0,16.0,63,0.00,,,0.00,0,Wunderground v.1.15,2013-05-26 18:56:00,
2013-05-26 13:58:00,51.5,39.3,29.95,ENE,68,9.0,16.0,63,0.00,,,0.00,0,Wunderground v.1.15,2013-05-26 18:58:00,
2013-05-26 13:59:00,51.6,39.4,29.96,SE,128,8.0,16.0,63,0.00,,,0.00,0,Wunderground v.1.15,2013-05-26 18:59:00,
2013-05-26 14:01:00,51.8,39.6,29.96,ESE,119,9.0,9.0,63,0.00,,,0.00,0,Wunderground v.1.15,2013-05-26 19:01:00,
2013-05-26 14:03:00,51.8,39.6,29.96,ENE,61,5.0,10.0,63,0.00,,,0.00,0,Wunderground v.1.15,2013-05-26 19:03:00,
2013-05-26 14:04:00,51.8,39.6,29.96,ESE,119,5.0,10.0,63,0.00,,,0.00,0,Wunderground v.1.15,2013-05-26 19:04:00,
2013-05-26 14:07:00,51.9,40.1,29.95,East,87,7.0,10.0,64,0.00,,,0.00,0,Wunderground v.1.15,2013-05-26 19:07:00,
2013-05-26 14:08:00,52.0,40.2,29.96,SE,131,1.0,11.0,64,0.00,,,0.00,0,Wunderground v.1.15,2013-05-26 19:08:00,
2013-05-26 14:09:00,52.0,39.8,29.95,SE,131,3.0,3.0,63,0.00,,,0.00,0,Wunderground v.1.15,2013-05-26 19:09:00,
2013-05-26 14:12:00,52.0,40.2,29.96,ENE,75,5.0,8.0,64,0.00,,,0.00,0,Wunderground v.1.15,2013-05-26 19:12:00,
2013-05-26 14:13:00,52.0,40.2,29.95,SE,140,12.0,12.0,64,0.00,,,0.00,0,Wunderground v.1.15,2013-05-26 19:13:00,
2013-05-26 14:14:00,51.9,40.5,29.96,ESE,103,7.0,12.0,65,0.00,,,0.00,0,Wunderground v.1.15,2013-05-26 19:14:00,
2013-05-26 14:16:00,51.8,40.0,29.95,SE,137,10.0,16.0,64,0.00,,,0.00,0,Wunderground v.1.15,2013-05-26 19:16:00,
2013-05-26 14:17:00,51.6,39.8,29.96,NE,39,2.0,22.0,64,0.00,,,0.00,0,Wunderground v.1.15,2013-05-26 19:17:00,
2013-05-26 14:18:00,51.5,40.1,29.95,ESE,114,5.0,22.0,65,0.00,,,0.00,0,Wunderground v.1.15,2013-05-26 19:18:00,
2013-05-26 14:19:00,51.4,40.0,29.95,East,91,8.0,12.0,65,0.00,,,0.00,0,Wunderground v.1.15,2013-05-26 19:19:00,
2013-05-26 14:20:00,51.4,40.0,29.95,East,91,6.0,12.0,65,0.00,,,0.00,0,Wunderground v.1.15,2013-05-26 19:20:00,
2013-05-26 14:21:00,51.2,39.8,29.95,SE,127,9.0,18.0,65,0.00,,,0.00,0,Wunderground v.1.15,2013-05-26 19:21:00,
2013-05-26 14:22:00,51.2,39.8,29.95,SE,127,11.0,18.0,65,0.00,,,0.00,0,Wunderground v.1.15,2013-05-26 19:22:00,
2013-05-26 14:23:00,51.1,40.1,29.95,SE,141,7.0,18.0,66,0.00,,,0.00,0,Wunderground v.1.15,2013-05-26 19:23:00,
2013-05-26 14:24:00,51.2,40.6,29.95,ESE,110,4.0,18.0,67,0.00,,,0.00,0,Wunderground v.1.15,2013-05-26 19:24:00,
2013-05-26 14:25:00,51.2,40.6,29.94,ESE,105,4.0,18.0,67,0.00,,,0.00,0,Wunderground v.1.15,2013-05-26 19:25:00,
2013-05-26 14:26:00,51.2,40.6,29.95,East,86,7.0,18.0,67,0.00,,,0.00,0,Wunderground v.1.15,2013-05-26 19:26:00,
2013-05-26 14:27:00,51.2,40.6,29.95,NE,50,5.0,18.0,67,0.00,,,0.00,0,Wunderground v.1.15,2013-05-26 19:27:00,
2013-05-26 14:29:00,51.2,40.6,29.95,East,100,7.0,20.0,67,0.00,,,0.00,0,Wunderground v.1.15,2013-05-26 19:29:00,
2013-05-26 14:30:00,51.2,40.6,29.95,East,97,3.0,5.0,67,0.00,,,0.00,0,Wunderground v.1.15,2013-05-26 19:30:00,
2013-05-26 14:31:00,51.2,40.6,29.95,ESE,122,10.0,14.0,67,0.00,,,0.00,0,Wunderground v.1.15,2013-05-26 19:31:00,
2013-05-26 14:32:00,51.2,40.6,29.95,ESE,123,13.0,14.0,67,0.00,,,0.00,0,Wunderground v.1.15,2013-05-26 19:32:00,
2013-05-26 14:34:00,51.2,40.6,29.95,ENE,77,6.0,26.0,67,0.00,,,0.00,0,Wunderground v.1.15,2013-05-26 19:34:00,
2013-05-26 14:35:00,51.2,40.6,29.95,SE,129,10.0,26.0,67,0.00,,,0.00,0,Wunderground v.1.15,2013-05-26 19:35:00,
2013-05-26 14:36:00,51.2,41.0,29.95,East,89,9.0,26.0,68,0.00,,,0.00,0,Wunderground v.1.15,2013-05-26 19:36:00,
2013-05-26 14:38:00,51.3,41.1,29.95,SE,138,9.0,26.0,68,0.00,,,0.00,0,Wunderground v.1.15,2013-05-26 19:38:00,
2013-05-26 14:39:00,51.3,41.1,29.95,ESE,116,5.0,26.0,68,0.00,,,0.00,0,Wunderground v.1.15,2013-05-26 19:39:00,
2013-05-26 14:40:00,51.3,41.1,29.95,East,95,10.0,16.0,68,0.00,,,0.00,0,Wunderground v.1.15,2013-05-26 19:40:00,
2013-05-26 14:41:00,51.2,41.0,29.94,ENE,60,2.0,16.0,68,0.00,,,0.00,0,Wunderground v.1.15,2013-05-26 19:41:00,
2013-05-26 14:43:00,51.3,41.5,29.94,ENE,76,5.0,18.0,69,0.00,,,0.00,0,Wunderground v.1.15,2013-05-26 19:43:00,
2013-05-26 14:44:00,51.3,41.1,29.94,ESE,105,7.0,20.0,68,0.00,,,0.00,0,Wunderground v.1.15,2013-05-26 19:44:00,
2013-05-26 14:45:00,51.3,41.5,29.94,East,95,7.0,20.0,69,0.00,,,0.00,0,Wunderground v.1.15,2013-05-26 19:45:00,
2013-05-26 14:47:00,51.2,41.4,29.94,East,89,5.0,21.0,69,0.00,,,0.00,0,Wunderground v.1.15,2013-05-26 19:47:00,
2013-05-26 14:48:00,51.2,41.4,29.94,East,79,6.0,21.0,69,0.00,,,0.00,0,Wunderground v.1.15,2013-05-26 19:48:00,
2013-05-26 14:49:00,51.3,41.5,29.94,ENE,66,4.0,22.0,69,0.00,,,0.00,0,Wunderground v.1.15,2013-05-26 19:49:00,
2013-05-26 14:50:00,51.3,41.8,29.94,SE,126,11.0,22.0,70,0.00,,,0.00,0,Wunderground v.1.15,2013-05-26 19:50:00,
2013-05-26 14:51:00,51.3,41.5,29.94,SE,133,10.0,22.0,69,0.00,,,0.00,0,Wunderground v.1.15,2013-05-26 19:51:00,
2013-05-26 14:53:00,51.2,41.4,29.93,ENE,62,5.0,22.0,69,0.00,,,0.00,0,Wunderground v.1.15,2013-05-26 19:53:00,
2013-05-26 14:55:00,51.2,41.7,29.94,ESE,109,6.0,22.0,70,0.00,,,0.00,0,Wunderground v.1.15,2013-05-26 19:55:00,
2013-05-26 14:57:00,51.3,41.8,29.93,SE,134,6.0,22.0,70,0.00,,,0.00,0,Wunderground v.1.15,2013-05-26 19:57:00,
2013-05-26 14:58:00,51.3,41.8,29.94,ESE,113,14.0,22.0,70,0.00,,,0.00,0,Wunderground v.1.15,2013-05-26 19:58:00,
2013-05-26 15:00:00,51.1,41.7,29.94,ENE,71,9.0,11.0,70,0.00,,,0.00,0,Wunderground v.1.15,2013-05-26 20:00:00,
2013-05-26 15:01:00,51.1,41.7,29.93,ESE,112,9.0,14.0,70,0.00,,,0.00,0,Wunderground v.1.15,2013-05-26 20:01:00,
2013-05-26 15:02:00,51.0,41.9,29.93,ENE,74,5.0,14.0,71,0.00,,,0.00,0,Wunderground v.1.15,2013-05-26 20:02:00,
2013-05-26 15:03:00,51.0,41.9,29.93,SE,131,4.0,14.0,71,0.00,,,0.00,0,Wunderground v.1.15,2013-05-26 20:03:00,
2013-05-26 15:05:00,51.0,41.9,29.92,SE,125,9.0,16.0,71,0.00,,,0.00,0,Wunderground v.1.15,2013-05-26 20:05:00,
2013-05-26 15:06:00,51.0,41.9,29.92,ESE,107,7.0,16.0,71,0.00,,,0.00,0,Wunderground v.1.15,2013-05-26 20:06:00,
2013-05-26 15:08:00,51.0,42.3,29.92,East,89,5.0,16.0,72,0.00,,,0.00,0,Wunderground v.1.15,2013-05-26 20:08:00,
2013-05-26 15:10:00,51.1,42.4,29.92,SSE,156,17.0,17.0,72,0.00,,,0.00,0,Wunderground v.1.15,2013-05-26 20:10:00,
2013-05-26 15:11:00,51.1,42.4,29.92,ESE,120,7.0,17.0,72,0.00,,,0.00,0,Wunderground v.1.15,2013-05-26 20:11:00,
2013-05-26 15:13:00,51.1,42.4,29.92,SE,131,3.0,17.0,72,0.00,,,0.00,0,Wunderground v.1.15,2013-05-26 20:13:00,
2013-05-26 15:15:00,51.1,42.7,29.91,NE,42,4.0,17.0,73,0.00,,,0.00,0,Wunderground v.1.15,2013-05-26 20:15:00,
2013-05-26 15:16:00,51.2,42.8,29.91,ENE,70,8.0,17.0,73,0.00,,,0.00,0,Wunderground v.1.15,2013-05-26 20:16:00,
2013-05-26 15:18:00,51.2,42.8,29.91,SE,129,14.0,17.0,73,0.00,,,0.00,0,Wunderground v.1.15,2013-05-26 20:18:00,
2013-05-26 15:20:00,51.2,42.8,29.91,NE,39,5.0,12.0,73,0.00,,,0.00,0,Wunderground v.1.15,2013-05-26 20:20:00,
2013-05-26 15:21:00,51.2,42.8,29.91,SE,137,3.0,16.0,73,0.00,,,0.00,0,Wunderground v.1.15,2013-05-26 20:21:00,
2013-05-26 15:23:00,51.3,43.3,29.91,ENE,62,4.0,16.0,74,0.00,,,0.00,0,Wunderground v.1.15,2013-05-26 20:23:00,
2013-05-26 15:26:00,51.4,43.4,29.90,East,85,8.0,21.0,74,0.00,,,0.00,0,Wunderground v.1.15,2013-05-26 20:26:00,
2013-05-26 15:28:00,51.5,43.5,29.90,ESE,106,7.0,21.0,74,0.00,,,0.00,0,Wunderground v.1.15,2013-05-26 20:28:00,
2013-05-26 15:31:00,51.5,43.5,29.90,ESE,118,11.0,15.0,74,0.00,,,0.00,0,Wunderground v.1.15,2013-05-26 20:31:00,
2013-05-26 15:33:00,51.5,43.5,29.89,SE,139,12.0,16.0,74,0.00,,,0.00,0,Wunderground v.1.15,2013-05-26 20:33:00,
2013-05-26 15:36:00,51.6,43.9,29.89,ENE,72,8.0,24.0,75,0.00,,,0.00,0,Wunderground v.1.15,2013-05-26 20:36:00,
2013-05-26 15:37:00,51.7,44.0,29.89,ENE,57,10.0,24.0,75,0.00,,,0.00,0,Wunderground v.1.15,2013-05-26 20:37:00,
2013-05-26 15:38:00,51.7,44.0,29.89,ENE,77,9.0,24.0,75,0.00,,,0.00,0,Wunderground v.1.15,2013-05-26 20:38:00,
2013-05-26 15:41:00,51.8,43.8,29.88,ENE,75,13.0,13.0,74,0.00,,,0.00,0,Wunderground v.1.15,2013-05-26 20:41:00,
2013-05-26 15:42:00,51.8,43.8,29.89,ESE,102,8.0,13.0,74,0.00,,,0.00,0,Wunderground v.1.15,2013-05-26 20:42:00,
2013-05-26 15:43:00,51.7,43.7,29.88,SE,132,15.0,18.0,74,0.00,,,0.00,0,Wunderground v.1.15,2013-05-26 20:43:00,
2013-05-26 15:44:00,51.7,43.7,29.88,SE,130,9.0,18.0,74,0.00,,,0.00,0,Wunderground v.1.15,2013-05-26 20:44:00,
2013-05-26 15:46:00,51.7,44.0,29.88,ESE,102,9.0,18.0,75,0.00,,,0.00,0,Wunderground v.1.15,2013-05-26 20:46:00,
2013-05-26 15:47:00,51.7,44.0,29.89,SE,131,12.0,18.0,75,0.00,,,0.00,0,Wunderground v.1.15,2013-05-26 20:47:00,
2013-05-26 15:48:00,51.8,44.1,29.89,ESE,120,13.0,18.0,75,0.00,,,0.00,0,Wunderground v.1.15,2013-05-26 20:48:00,
2013-05-26 15:49:00,51.8,44.1,29.88,SE,128,3.0,18.0,75,0.00,,,0.00,0,Wunderground v.1.15,2013-05-26 20:49:00,
2013-05-26 15:51:00,51.8,44.1,29.89,SE,129,15.0,17.0,75,0.00,,,0.00,0,Wunderground v.1.15,2013-05-26 20:51:00,
2013-05-26 15:52:00,51.8,44.1,29.89,NE,55,5.0,18.0,75,0.00,,,0.00,0,Wunderground v.1.15,2013-05-26 20:52:00,
2013-05-26 15:54:00,51.7,44.0,29.89,ENE,67,9.0,18.0,75,0.00,,,0.00,0,Wunderground v.1.15,2013-05-26 20:54:00,
2013-05-26 15:56:00,51.7,44.0,29.89,East,86,6.0,26.0,75,0.00,,,0.00,0,Wunderground v.1.15,2013-05-26 20:56:00,
2013-05-26 15:57:00,51.7,44.0,29.89,East,101,5.0,26.0,75,0.00,,,0.00,0,Wunderground v.1.15,2013-05-26 20:57:00,
2013-05-26 15:59:00,51.7,44.0,29.88,East,87,8.0,26.0,75,0.00,,,0.00,0,Wunderground v.1.15,2013-05-26 20:59:00,
2013-05-26 16:01:00,51.7,44.0,29.89,ENE,62,12.0,21.0,75,0.00,,,0.00,0,Wunderground v.1.15,2013-05-26 21:01:00,
2013-05-26 16:02:00,51.7,44.0,29.88,ESE,106,11.0,21.0,75,0.00,,,0.00,0,Wunderground v.1.15,2013-05-26 21:02:00,
2013-05-26 16:04:00,51.7,44.4,29.89,East,89,8.0,21.0,76,0.00,,,0.00,0,Wunderground v.1.15,2013-05-26 21:04:00,
2013-05-26 16:07:00,51.9,44.6,29.90,SE,146,5.0,21.0,76,0.00,,,0.00,0,Wunderground v.1.15,2013-05-26 21:07:00,
2013-05-26 16:09:00,52.0,44.7,29.90,East,89,8.0,24.0,76,0.00,,,0.00,0,Wunderground v.1.15,2013-05-26 21:09:00,
2013-05-26 16:12:00,52.1,44.8,29.90,ESE,119,2.0,10.0,76,0.00,,,0.00,0,Wunderground v.1.15,2013-05-26 21:12:00,
2013-05-26 16:14:00,52.1,44.8,29.90,ENE,72,10.0,12.0,76,0.00,,,0.00,0,Wunderground v.1.15,2013-05-26 21:14:00,
2013-05-26 16:15:00,52.2,44.9,29.90,ENE,58,6.0,12.0,76,0.00,,,0.00,0,Wunderground v.1.15,2013-05-26 21:15:00,
2013-05-26 16:17:00,52.2,44.5,29.90,East,95,4.0,12.0,75,0.00,,,0.00,0,Wunderground v.1.15,2013-05-26 21:17:00,
2013-05-26 16:19:00,52.2,44.5,29.90,ESE,107,6.0,12.0,75,0.00,,,0.00,0,Wunderground v.1.15,2013-05-26 21:19:00,
2013-05-26 16:20:00,52.2,44.5,29.90,East,93,7.0,11.0,75,0.00,,,0.00,0,Wunderground v.1.15,2013-05-26 21:20:00,
2013-05-26 16:22:00,52.3,44.6,29.90,East,92,5.0,11.0,75,0.00,,,0.00,0,Wunderground v.1.15,2013-05-26 21:22:00,
2013-05-26 16:24:00,52.3,44.6,29.90,SE,127,6.0,19.0,75,0.00,,,0.00,0,Wunderground v.1.15,2013-05-26 21:24:00,
2013-05-26 16:25:00,52.4,44.7,29.90,SE,130,4.0,19.0,75,0.00,,,0.00,0,Wunderground v.1.15,2013-05-26 21:25:00,
2013-05-26 16:27:00,52.5,44.4,29.90,ESE,111,6.0,19.0,74,0.00,,,0.00,0,Wunderground v.1.15,2013-05-26 21:27:00,
2013-05-26 16:28:00,52.5,44.4,29.90,SE,133,11.0,19.0,74,0.00,,,0.00,0,Wunderground v.1.15,2013-05-26 21:28:00,
2013-05-26 16:29:00,52.6,44.5,29.89,ESE,122,3.0,19.0,74,0.00,,,0.00,0,Wunderground v.1.15,2013-05-26 21:29:00,
2013-05-26 16:30:00,52.6,44.5,29.90,SE,135,1.0,17.0,74,0.00,,,0.00,0,Wunderground v.1.15,2013-05-26 21:30:00,
2013-05-26 16:32:00,52.8,44.7,29.90,East,92,3.0,17.0,74,0.00,,,0.00,0,Wunderground v.1.15,2013-05-26 21:32:00,
2013-05-26 16:33:00,52.8,44.7,29.90,East,93,3.0,17.0,74,0.00,,,0.00,0,Wunderground v.1.15,2013-05-26 21:33:00,
2013-05-26 16:34:00,53.0,44.9,29.89,ESE,102,3.0,17.0,74,0.00,,,0.00,0,Wunderground v.1.15,2013-05-26 21:34:00,
2013-05-26 16:35:00,53.2,45.1,29.90,ESE,119,4.0,17.0,74,0.00,,,0.00,0,Wunderground v.1.15,2013-05-26 21:35:00,
2013-05-26 16:38:00,53.2,45.1,29.90,SE,132,6.0,19.0,74,0.00,,,0.00,0,Wunderground v.1.15,2013-05-26 21:38:00,
2013-05-26 16:40:00,53.2,44.8,29.89,ENE,75,7.0,7.0,73,0.00,,,0.00,0,Wunderground v.1.15,2013-05-26 21:40:00,
2013-05-26 16:41:00,53.2,44.8,29.89,ESE,107,7.0,13.0,73,0.00,,,0.00,0,Wunderground v.1.15,2013-05-26 21:41:00,
2013-05-26 16:43:00,53.2,44.4,29.90,SE,124,7.0,13.0,72,0.00,,,0.00,0,Wunderground v.1.15,2013-05-26 21:43:00,
2013-05-26 16:45:00,53.1,44.3,29.89,SE,131,6.0,17.0,72,0.00,,,0.00,0,Wunderground v.1.15,2013-05-26 21:45:00,
2013-05-26 16:46:00,53.1,44.3,29.90,SSE,159,15.0,17.0,72,0.00,,,0.00,0,Wunderground v.1.15,2013-05-26 21:46:00,
2013-05-26 16:48:00,53.1,44.7,29.90,SSE,148,4.0,17.0,73,0.00,,,0.00,0,Wunderground v.1.15,2013-05-26 21:48:00,
2013-05-26 16:50:00,53.1,44.7,29.89,SE,124,14.0,19.0,73,0.00,,,0.00,0,Wunderground v.1.15,2013-05-26 21:50:00,
2013-05-26 16:51:00,53.1,44.7,29.89,ESE,109,8.0,19.0,73,0.00,,,0.00,0,Wunderground v.1.15,2013-05-26 21:51:00,
2013-05-26 16:53:00,53.0,44.6,29.89,SE,134,9.0,19.0,73,0.00,,,0.00,0,Wunderground v.1.15,2013-05-26 21:53:00,
2013-05-26 16:56:00,53.0,44.6,29.89,ENE,73,3.0,19.0,73,0.00,,,0.00,0,Wunderground v.1.15,2013-05-26 21:56:00,
2013-05-26 16:58:00,53.0,44.6,29.89,SE,140,11.0,19.0,73,0.00,,,0.00,0,Wunderground v.1.15,2013-05-26 21:58:00,
2013-05-26 17:01:00,53.1,45.0,29.89,SE,144,6.0,14.0,74,0.00,,,0.00,0,Wunderground v.1.15,2013-05-26 22:01:00,
2013-05-26 17:03:00,53.1,44.7,29.90,ESE,116,3.0,14.0,73,0.00,,,0.00,0,Wunderground v.1.15,2013-05-26 22:03:00,
2013-05-26 17:06:00,53.1,44.7,29.90,ENE,73,5.0,14.0,73,0.00,,,0.00,0,Wunderground v.1.15,2013-05-26 22:06:00,
2013-05-26 17:07:00,53.1,45.0,29.90,ENE,74,4.0,14.0,74,0.00,,,0.00,0,Wunderground v.1.15,2013-05-26 22:07:00,
2013-05-26 17:08:00,53.1,44.7,29.90,SE,126,15.0,15.0,73,0.00,,,0.00,0,Wunderground v.1.15,2013-05-26 22:08:00,
2013-05-26 17:11:00,53.1,45.0,29.90,SE,132,2.0,9.0,74,0.00,,,0.00,0,Wunderground v.1.15,2013-05-26 22:11:00,
2013-05-26 17:12:00,53.1,45.0,29.90,SE,130,3.0,13.0,74,0.00,,,0.00,0,Wunderground v.1.15,2013-05-26 22:12:00,
2013-05-26 17:13:00,53.1,45.0,29.90,ESE,120,8.0,13.0,74,0.00,,,0.00,0,Wunderground v.1.15,2013-05-26 22:13:00,
2013-05-26 17:14:00,53.1,45.0,29.90,SE,124,10.0,13.0,74,0.00,,,0.00,0,Wunderground v.1.15,2013-05-26 22:14:00,
2013-05-26 17:16:00,53.1,45.0,29.90,East,87,7.0,13.0,74,0.00,,,0.00,0,Wunderground v.1.15,2013-05-26 22:16:00,
2013-05-26 17:17:00,53.1,45.0,29.90,SE,130,4.0,13.0,74,0.00,,,0.00,0,Wunderground v.1.15,2013-05-26 22:17:00,
2013-05-26 17:18:00,53.1,45.0,29.90,SE,132,3.0,13.0,74,0.00,,,0.00,0,Wunderground v.1.15,2013-05-26 22:18:00,
2013-05-26 17:19:00,53.1,45.0,29.90,ESE,106,3.0,13.0,74,0.00,,,0.00,0,Wunderground v.1.15,2013-05-26 22:19:00,
2013-05-26 17:21:00,53.2,45.1,29.89,ESE,105,2.0,6.0,74,0.00,,,0.00,0,Wunderground v.1.15,2013-05-26 22:21:00,
2013-05-26 17:23:00,53.2,45.1,29.89,SE,135,2.0,11.0,74,0.00,,,0.00,0,Wunderground v.1.15,2013-05-26 22:23:00,
2013-05-26 17:24:00,53.2,45.1,29.89,SE,136,2.0,11.0,74,0.00,,,0.00,0,Wunderground v.1.15,2013-05-26 22:24:00,
2013-05-26 17:26:00,53.3,45.6,29.88,ENE,70,7.0,12.0,75,0.00,,,0.00,0,Wunderground v.1.15,2013-05-26 22:26:00,
2013-05-26 17:28:00,53.4,45.7,29.88,ENE,73,5.0,12.0,75,0.00,,,0.00,0,Wunderground v.1.15,2013-05-26 22:28:00,
2013-05-26 17:29:00,53.4,45.7,29.88,ENE,74,3.0,12.0,75,0.00,,,0.00,0,Wunderground v.1.15,2013-05-26 22:29:00,
2013-05-26 17:31:00,53.5,45.8,29.88,ENE,67,4.0,12.0,75,0.00,,,0.00,0,Wunderground v.1.15,2013-05-26 22:31:00,
2013-05-26 17:33:00,53.6,45.5,29.88,NE,53,7.0,12.0,74,0.00,,,0.00,0,Wunderground v.1.15,2013-05-26 22:33:00,
2013-05-26 17:34:00,53.6,45.5,29.89,ENE,61,5.0,12.0,74,0.00,,,0.00,0,Wunderground v.1.15,2013-05-26 22:34:00,
2013-05-26 17:36:00,53.7,45.6,29.88,ENE,70,2.0,12.0,74,0.00,,,0.00,0,Wunderground v.1.15,2013-05-26 22:36:00,
2013-05-26 17:38:00,53.8,45.7,29.88,ENE,70,2.0,12.0,74,0.00,,,0.00,0,Wunderground v.1.15,2013-05-26 22:38:00,
2013-05-26 17:39:00,53.9,45.8,29.88,ENE,70,2.0,12.0,74,0.00,,,0.00,0,Wunderground v.1.15,2013-05-26 22:39:00,
2013-05-26 17:40:00,54.0,45.9,29.88,ENE,58,12.0,13.0,74,0.00,,,0.00,0,Wunderground v.1.15,2013-05-26 22:40:00,
2013-05-26 17:42:00,54.0,45.5,29.89,NE,45,7.0,14.0,73,0.00,,,0.00,0,Wunderground v.1.15,2013-05-26 22:42:00,
2013-05-26 17:43:00,54.1,45.6,29.88,ESE,103,2.0,14.0,73,0.00,,,0.00,0,Wunderground v.1.15,2013-05-26 22:43:00,
2013-05-26 17:44:00,54.1,45.6,29.88,ESE,122,4.0,14.0,73,0.00,,,0.00,0,Wunderground v.1.15,2013-05-26 22:44:00,
2013-05-26 17:45:00,54.2,45.7,29.88,SE,129,7.0,14.0,73,0.00,,,0.00,0,Wunderground v.1.15,2013-05-26 22:45:00,
2013-05-26 17:47:00,54.2,45.7,29.89,ESE,119,7.0,14.0,73,0.00,,,0.00,0,Wunderground v.1.15,2013-05-26 22:47:00,
2013-05-26 17:48:00,54.2,45.4,29.88,SE,133,3.0,14.0,72,0.00,,,0.00,0,Wunderground v.1.15,2013-05-26 22:48:00,
2013-05-26 17:49:00,54.3,45.8,29.89,SE,133,6.0,8.0,73,0.00,,,0.00,0,Wunderground v.1.15,2013-05-26 22:49:00,
2013-05-26 17:50:00,54.3,45.5,29.88,SE,133,6.0,8.0,72,0.00,,,0.00,0,Wunderground v.1.15,2013-05-26 22:50:00,
2013-05-26 17:52:00,54.3,45.8,29.88,SE,129,5.0,11.0,73,0.00,,,0.00,0,Wunderground v.1.15,2013-05-26 22:52:00,
2013-05-26 17:53:00,54.3,45.5,29.88,SE,129,1.0,11.0,72,0.00,,,0.00,0,Wunderground v.1.15,2013-05-26 22:53:00,
2013-05-26 17:54:00,54.3,45.5,29.88,SE,129,3.0,11.0,72,0.00,,,0.00,0,Wunderground v.1.15,2013-05-26 22:54:00,
2013-05-26 17:55:00,54.3,45.5,29.89,SE,126,3.0,11.0,72,0.00,,,0.00,0,Wunderground v.1.15,2013-05-26 22:55:00,
2013-05-26 17:57:00,54.3,45.5,29.89,SE,146,6.0,11.0,72,0.00,,,0.00,0,Wunderground v.1.15,2013-05-26 22:57:00,
2013-05-26 17:59:00,54.3,45.5,29.89,SE,125,7.0,16.0,72,0.00,,,0.00,0,Wunderground v.1.15,2013-05-26 22:59:00,
2013-05-26 18:00:00,54.3,45.5,29.90,ENE,63,3.0,6.0,72,0.00,,,0.00,0,Wunderground v.1.15,2013-05-26 23:00:00,
2013-05-26 18:03:00,54.2,45.4,29.89,ENE,62,6.0,17.0,72,0.00,,,0.00,0,Wunderground v.1.15,2013-05-26 23:03:00,
2013-05-26 18:04:00,54.2,45.4,29.89,SE,126,5.0,17.0,72,0.00,,,0.00,0,Wunderground v.1.15,2013-05-26 23:04:00,
2013-05-26 18:05:00,54.2,45.4,29.89,East,79,6.0,17.0,72,0.00,,,0.00,0,Wunderground v.1.15,2013-05-26 23:05:00,
2013-05-26 18:08:00,54.2,45.0,29.89,SSE,163,6.0,18.0,71,0.00,,,0.00,0,Wunderground v.1.15,2013-05-26 23:08:00,
2013-05-26 18:09:00,54.2,45.4,29.89,East,84,6.0,18.0,72,0.00,,,0.00,0,Wunderground v.1.15,2013-05-26 23:09:00,
2013-05-26 18:10:00,54.3,45.1,29.89,ESE,115,8.0,13.0,71,0.00,,,0.00,0,Wunderground v.1.15,2013-05-26 23:10:00,
2013-05-26 18:13:00,54.3,45.5,29.90,SE,136,6.0,13.0,72,0.00,,,0.00,0,Wunderground v.1.15,2013-05-26 23:13:00,
2013-05-26 18:14:00,54.3,45.5,29.90,East,94,7.0,13.0,72,0.00,,,0.00,0,Wunderground v.1.15,2013-05-26 23:14:00,
2013-05-26 18:15:00,54.3,45.1,29.90,SE,126,3.0,13.0,71,0.00,,,0.00,0,Wunderground v.1.15,2013-05-26 23:15:00,
2013-05-26 18:18:00,54.3,45.1,29.90,ESE,121,8.0,15.0,71,0.00,,,0.00,0,Wunderground v.1.15,2013-05-26 23:18:00,
2013-05-26 18:19:00,54.3,45.1,29.90,East,81,4.0,15.0,71,0.00,,,0.00,0,Wunderground v.1.15,2013-05-26 23:19:00,
2013-05-26 18:20:00,54.3,45.5,29.91,ENE,63,3.0,11.0,72,0.00,,,0.00,0,Wunderground v.1.15,2013-05-26 23:20:00,
2013-05-26 18:23:00,54.3,45.5,29.91,ESE,107,1.0,11.0,72,0.00,,,0.00,0,Wunderground v.1.15,2013-05-26 23:23:00,
2013-05-26 18:24:00,54.3,45.5,29.91,SSE,152,5.0,13.0,72,0.00,,,0.00,0,Wunderground v.1.15,2013-05-26 23:24:00,
2013-05-26 18:25:00,54.3,45.5,29.91,SE,143,2.0,13.0,72,0.00,,,0.00,0,Wunderground v.1.15,2013-05-26 23:25:00,
2013-05-26 18:28:00,54.3,45.1,29.91,SE,146,5.0,13.0,71,0.00,,,0.00,0,Wunderground v.1.15,2013-05-26 23:28:00,
2013-05-26 18:29:00,54.3,45.5,29.91,SE,134,8.0,13.0,72,0.00,,,0.00,0,Wunderground v.1.15,2013-05-26 23:29:00,
2013-05-26 18:30:00,54.3,45.5,29.91,ESE,117,3.0,10.0,72,0.00,,,0.00,0,Wunderground v.1.15,2013-05-26 23:30:00,
2013-05-26 18:31:00,54.3,45.5,29.91,ESE,116,0.0,10.0,72,0.00,,,0.00,0,Wunderground v.1.15,2013-05-26 23:31:00,
2013-05-26 18:33:00,54.3,45.5,29.91,ESE,118,2.0,10.0,72,0.00,,,0.00,0,Wunderground v.1.15,2013-05-26 23:33:00,
2013-05-26 18:34:00,54.3,45.5,29.91,NE,56,5.0,10.0,72,0.00,,,0.00,0,Wunderground v.1.15,2013-05-26 23:34:00,
2013-05-26 18:36:00,54.3,45.5,29.90,SE,124,3.0,10.0,72,0.00,,,0.00,0,Wunderground v.1.15,2013-05-26 23:36:00,
2013-05-26 18:38:00,54.3,45.1,29.91,SE,137,4.0,13.0,71,0.00,,,0.00,0,Wunderground v.1.15,2013-05-26 23:38:00,
2013-05-26 18:39:00,54.3,45.5,29.90,ESE,118,6.0,6.0,72,0.00,,,0.00,0,Wunderground v.1.15,2013-05-26 23:39:00,
2013-05-26 18:40:00,54.3,45.1,29.90,ESE,117,2.0,6.0,71,0.00,,,0.00,0,Wunderground v.1.15,2013-05-26 23:40:00,
2013-05-26 18:41:00,54.3,45.5,29.91,East,84,3.0,7.0,72,0.00,,,0.00,0,Wunderground v.1.15,2013-05-26 23:41:00,
2013-05-26 18:43:00,54.3,45.5,29.91,SE,124,3.0,12.0,72,0.00,,,0.00,0,Wunderground v.1.15,2013-05-26 23:43:00,
2013-05-26 18:45:00,54.3,45.5,29.91,East,95,4.0,12.0,72,0.00,,,0.00,0,Wunderground v.1.15,2013-05-26 23:45:00,
2013-05-26 18:46:00,54.3,45.1,29.91,SE,131,7.0,12.0,71,0.00,,,0.00,0,Wunderground v.1.15,2013-05-26 23:46:00,
2013-05-26 18:48:00,54.3,45.5,29.90,ENE,57,7.0,12.0,72,0.00,,,0.00,0,Wunderground v.1.15,2013-05-26 23:48:00,
2013-05-26 18:50:00,54.3,45.1,29.91,SE,135,9.0,15.0,71,0.00,,,0.00,0,Wunderground v.1.15,2013-05-26 23:50:00,
2013-05-26 18:51:00,54.3,45.5,29.91,ESE,108,6.0,15.0,72,0.00,,,0.00,0,Wunderground v.1.15,2013-05-26 23:51:00,
2013-05-26 18:53:00,54.3,45.5,29.91,SE,145,5.0,15.0,72,0.00,,,0.00,0,Wunderground v.1.15,2013-05-26 23:53:00,
2013-05-26 18:55:00,54.3,45.5,29.91,SE,144,3.0,15.0,72,0.00,,,0.00,0,Wunderground v.1.15,2013-05-26 23:55:00,
2013-05-26 18:56:00,54.4,45.6,29.91,SE,143,6.0,15.0,72,0.00,,,0.00,0,Wunderground v.1.15,2013-05-26 23:56:00,
2013-05-26 18:59:00,54.4,45.6,29.91,SE,127,6.0,15.0,72,0.00,,,0.00,0,Wunderground v.1.15,2013-05-26 23:59:00,
2013-05-26 19:00:00,54.4,45.6,29.91,NE,40,5.0,10.0,72,0.00,,,0.00,0,Wunderground v.1.15,2013-05-27 00:00:00,
2013-05-26 19:01:00,54.4,45.6,29.90,NE,53,3.0,10.0,72,0.00,,,0.00,0,Wunderground v.1.15,2013-05-27 00:01:00,
2013-05-26 19:04:00,54.4,45.6,29.91,SE,128,1.0,10.0,72,0.00,,,0.00,0,Wunderground v.1.15,2013-05-27 00:04:00,
2013-05-26 19:05:00,54.4,45.6,29.91,SE,128,7.0,10.0,72,0.00,,,0.00,0,Wunderground v.1.15,2013-05-27 00:05:00,
2013-05-26 19:06:00,54.4,45.6,29.90,ENE,58,6.0,10.0,72,0.00,,,0.00,0,Wunderground v.1.15,2013-05-27 00:06:00,
2013-05-26 19:07:00,54.4,45.6,29.90,ENE,59,5.0,10.0,72,0.00,,,0.00,0,Wunderground v.1.15,2013-05-27 00:07:00,
2013-05-26 19:09:00,54.4,45.6,29.90,SE,130,3.0,3.0,72,0.00,,,0.00,0,Wunderground v.1.15,2013-05-27 00:09:00,
2013-05-26 19:10:00,54.4,45.6,29.90,NE,51,6.0,6.0,72,0.00,,,0.00,0,Wunderground v.1.15,2013-05-27 00:10:00,
2013-05-26 19:11:00,54.5,45.7,29.90,NE,48,3.0,7.0,72,0.00,,,0.00,0,Wunderground v.1.15,2013-05-27 00:11:00,
2013-05-26 19:12:00,54.5,45.7,29.91,SE,142,13.0,14.0,72,0.00,,,0.00,0,Wunderground v.1.15,2013-05-27 00:12:00,
2013-05-26 19:15:00,54.5,45.7,29.91,East,82,6.0,14.0,72,0.00,,,0.00,0,Wunderground v.1.15,2013-05-27 00:15:00,
2013-05-26 19:16:00,54.5,45.7,29.91,East,79,5.0,14.0,72,0.00,,,0.00,0,Wunderground v.1.15,2013-05-27 00:16:00,
2013-05-26 19:17:00,54.6,45.8,29.90,ENE,75,0.0,14.0,72,0.00,,,0.00,0,Wunderground v.1.15,2013-05-27 00:17:00,
2013-05-26 19:20:00,54.6,45.8,29.90,SE,127,2.0,4.0,72,0.00,,,0.00,0,Wunderground v.1.15,2013-05-27 00:20:00,
2013-05-26 19:21:00,54.6,45.8,29.90,ESE,122,4.0,13.0,72,0.00,,,0.00,0,Wunderground v.1.15,2013-05-27 00:21:00,
2013-05-26 19:22:00,54.6,45.8,29.90,East,86,5.0,13.0,72,0.00,,,0.00,0,Wunderground v.1.15,2013-05-27 00:22:00,
2013-05-26 19:25:00,54.6,45.8,29.90,SE,132,5.0,17.0,72,0.00,,,0.00,0,Wunderground v.1.15,2013-05-27 00:25:00,
2013-05-26 19:26:00,54.7,45.8,29.90,SE,132,5.0,17.0,72,0.00,,,0.00,0,Wunderground v.1.15,2013-05-27 00:26:00,
2013-05-26 19:27:00,54.7,45.8,29.91,ENE,73,4.0,17.0,72,0.00,,,0.00,0,Wunderground v.1.15,2013-05-27 00:27:00,
2013-05-26 19:30:00,54.7,45.8,29.90,ESE,121,0.0,4.0,72,0.00,,,0.00,0,Wunderground v.1.15,2013-05-27 00:30:00,
2013-05-26 19:31:00,54.7,45.8,29.90,SE,132,2.0,8.0,72,0.00,,,0.00,0,Wunderground v.1.15,2013-05-27 00:31:00,
2013-05-26 19:32:00,54.7,45.8,29.91,ESE,122,3.0,8.0,72,0.00,,,0.00,0,Wunderground v.1.15,2013-05-27 00:32:00,
2013-05-26 19:35:00,54.7,45.5,29.90,ESE,110,5.0,10.0,71,0.00,,,0.00,0,Wunderground v.1.15,2013-05-27 00:35:00,
2013-05-26 19:36:00,54.7,45.5,29.91,SE,127,2.0,12.0,71,0.00,,,0.00,0,Wunderground v.1.15,2013-05-27 00:36:00,
2013-05-26 19:37:00,54.8,45.9,29.90,ESE,117,4.0,12.0,72,0.00,,,0.00,0,Wunderground v.1.15,2013-05-27 00:37:00,
2013-05-26 19:38:00,54.8,45.6,29.90,SE,135,2.0,12.0,71,0.00,,,0.00,0,Wunderground v.1.15,2013-05-27 00:38:00,
2013-05-26 19:40:00,54.8,45.9,29.90,SE,136,5.0,11.0,72,0.00,,,0.00,0,Wunderground v.1.15,2013-05-27 00:40:00,
2013-05-26 19:42:00,54.8,45.9,29.90,SE,143,10.0,18.0,72,0.00,,,0.00,0,Wunderground v.1.15,2013-05-27 00:42:00,
2013-05-26 19:43:00,54.8,45.6,29.91,SSE,147,9.0,18.0,71,0.00,,,0.00,0,Wunderground v.1.15,2013-05-27 00:43:00,
2013-05-26 19:45:00,54.8,45.9,29.90,SE,135,5.0,18.0,72,0.00,,,0.00,0,Wunderground v.1.15,2013-05-27 00:45:00,
2013-05-26 19:47:00,54.8,45.6,29.90,SE,134,4.0,18.0,71,0.00,,,0.00,0,Wunderground v.1.15,2013-05-27 00:47:00,
2013-05-26 19:48:00,54.8,45.6,29.90,ESE,121,6.0,18.0,71,0.00,,,0.00,0,Wunderground v.1.15,2013-05-27 00:48:00,
2013-05-26 19:50:00,54.8,45.9,29.90,East,84,1.0,2.0,72,0.00,,,0.00,0,Wunderground v.1.15,2013-05-27 00:50:00,
2013-05-26 19:51:00,54.8,45.6,29.90,East,84,0.0,2.0,71,0.00,,,0.00,0,Wunderground v.1.15,2013-05-27 00:51:00,
2013-05-26 19:52:00,54.9,45.7,29.90,ESE,119,5.0,9.0,71,0.00,,,0.00,0,Wunderground v.1.15,2013-05-27 00:52:00,
2013-05-26 19:53:00,54.8,45.9,29.90,SE,136,2.0,9.0,72,0.00,,,0.00,0,Wunderground v.1.15,2013-05-27 00:53:00,
2013-05-26 19:55:00,54.8,45.6,29.90,NE,56,3.0,9.0,71,0.00,,,0.00,0,Wunderground v.1.15,2013-05-27 00:55:00,
2013-05-26 19:56:00,54.8,45.9,29.91,ENE,57,3.0,9.0,72,0.00,,,0.00,0,Wunderground v.1.15,2013-05-27 00:56:00,
2013-05-26 19:57:00,54.8,45.6,29.90,ENE,72,7.0,9.0,71,0.00,,,0.00,0,Wunderground v.1.15,2013-05-27 00:57:00,
2013-05-26 19:58:00,54.8,45.6,29.90,SE,129,2.0,9.0,71,0.00,,,0.00,0,Wunderground v.1.15,2013-05-27 00:58:00,
2013-05-26 20:00:00,54.8,45.6,29.90,SE,136,4.0,6.0,71,0.00,,,0.00,0,Wunderground v.1.15,2013-05-27 01:00:00,
2013-05-26 20:01:00,54.8,45.6,29.91,SE,135,1.0,6.0,71,0.00,,,0.00,0,Wunderground v.1.15,2013-05-27 01:01:00,
2013-05-26 20:02:00,54.8,45.6,29.90,SE,132,0.0,6.0,71,0.00,,,0.00,0,Wunderground v.1.15,2013-05-27 01:02:00,
2013-05-26 20:03:00,54.8,45.6,29.90,SE,133,5.0,6.0,71,0.00,,,0.00,0,Wunderground v.1.15,2013-05-27 01:03:00,
2013-05-26 20:05:00,54.8,45.6,29.91,NNE,29,8.0,8.0,71,0.00,,,0.00,0,Wunderground v.1.15,2013-05-27 01:05:00,
2013-05-26 20:06:00,54.8,45.6,29.90,NE,55,4.0,8.0,71,0.00,,,0.00,0,Wunderground v.1.15,2013-05-27 01:06:00,
2013-05-26 20:07:00,54.8,45.6,29.90,ESE,122,3.0,8.0,71,0.00,,,0.00,0,Wunderground v.1.15,2013-05-27 01:07:00,
2013-05-26 20:08:00,54.8,45.6,29.90,SE,135,1.0,9.0,71,0.00,,,0.00,0,Wunderground v.1.15,2013-05-27 01:08:00,
2013-05-26 20:11:00,54.8,45.6,29.90,SE,137,3.0,11.0,71,0.00,,,0.00,0,Wunderground v.1.15,2013-05-27 01:11:00,
2013-05-26 20:12:00,54.8,45.6,29.90,SE,137,1.0,11.0,71,0.00,,,0.00,0,Wunderground v.1.15,2013-05-27 01:12:00,
2013-05-26 20:13:00,54.8,45.6,29.90,SE,137,3.0,11.0,71,0.00,,,0.00,0,Wunderground v.1.15,2013-05-27 01:13:00,
2013-05-26 20:16:00,54.8,45.6,29.90,ENE,62,2.0,11.0,71,0.00,,,0.00,0,Wunderground v.1.15,2013-05-27 01:16:00,
2013-05-26 20:17:00,54.8,45.6,29.90,ENE,60,3.0,11.0,71,0.00,,,0.00,0,Wunderground v.1.15,2013-05-27 01:17:00,
2013-05-26 20:18:00,54.8,45.6,29.90,ESE,103,1.0,11.0,71,0.00,,,0.00,0,Wunderground v.1.15,2013-05-27 01:18:00,
2013-05-26 20:21:00,54.8,45.6,29.90,ESE,103,2.0,2.0,71,0.00,,,0.00,0,Wunderground v.1.15,2013-05-27 01:21:00,
2013-05-26 20:22:00,54.7,45.5,29.90,SE,131,7.0,9.0,71,0.00,,,0.00,0,Wunderground v.1.15,2013-05-27 01:22:00,
2013-05-26 20:23:00,54.7,45.5,29.90,East,88,4.0,12.0,71,0.00,,,0.00,0,Wunderground v.1.15,2013-05-27 01:23:00,
2013-05-26 20:26:00,54.7,45.5,29.90,East,79,3.0,12.0,71,0.00,,,0.00,0,Wunderground v.1.15,2013-05-27 01:26:00,
2013-05-26 20:27:00,54.7,45.5,29.90,ESE,119,10.0,12.0,71,0.00,,,0.00,0,Wunderground v.1.15,2013-05-27 01:27:00,
2013-05-26 20:28:00,54.7,45.5,29.90,ENE,66,5.0,12.0,71,0.00,,,0.00,0,Wunderground v.1.15,2013-05-27 01:28:00,
2013-05-26 20:31:00,54.7,45.1,29.90,ESE,113,1.0,7.0,70,0.00,,,0.00,0,Wunderground v.1.15,2013-05-27 01:31:00,
2013-05-26 20:32:00,54.7,45.1,29.91,East,88,2.0,7.0,70,0.00,,,0.00,0,Wunderground v.1.15,2013-05-27 01:32:00,
2013-05-26 20:33:00,54.7,45.1,29.90,ENE,72,2.0,7.0,70,0.00,,,0.00,0,Wunderground v.1.15,2013-05-27 01:33:00,
2013-05-26 20:34:00,54.7,45.1,29.90,ENE,72,3.0,7.0,70,0.00,,,0.00,0,Wunderground v.1.15,2013-05-27 01:34:00,
2013-05-26 20:36:00,54.7,45.1,29.90,SE,127,7.0,9.0,70,0.00,,,0.00,0,Wunderground v.1.15,2013-05-27 01:36:00,
2013-05-26 20:37:00,54.7,45.1,29.90,East,89,4.0,9.0,70,0.00,,,0.00,0,Wunderground v.1.15,2013-05-27 01:37:00,
2013-05-26 20:38:00,54.7,45.1,29.90,ENE,62,3.0,9.0,70,0.00,,,0.00,0,Wunderground v.1.15,2013-05-27 01:38:00,
2013-05-26 20:39:00,54.7,45.1,29.90,ENE,62,2.0,9.0,70,0.00,,,0.00,0,Wunderground v.1.15,2013-05-27 01:39:00,
2013-05-26 20:41:00,54.7,45.1,29.89,ENE,65,5.0,11.0,70,0.00,,,0.00,0,Wunderground v.1.15,2013-05-27 01:41:00,
2013-05-26 20:43:00,54.7,45.1,29.90,SE,135,1.0,13.0,70,0.00,,,0.00,0,Wunderground v.1.15,2013-05-27 01:43:00,
2013-05-26 20:44:00,54.7,45.1,29.89,SE,134,5.0,13.0,70,0.00,,,0.00,0,Wunderground v.1.15,2013-05-27 01:44:00,
2013-05-26 20:46:00,54.7,44.7,29.90,ENE,68,3.0,13.0,69,0.00,,,0.00,0,Wunderground v.1.15,2013-05-27 01:46:00,
2013-05-26 20:48:00,54.7,44.7,29.90,ENE,60,2.0,13.0,69,0.00,,,0.00,0,Wunderground v.1.15,2013-05-27 01:48:00,
2013-05-26 20:49:00,54.7,44.7,29.90,ENE,68,8.0,14.0,69,0.00,,,0.00,0,Wunderground v.1.15,2013-05-27 01:49:00,
2013-05-26 20:51:00,54.6,45.0,29.90,ENE,71,0.0,5.0,70,0.00,,,0.00,0,Wunderground v.1.15,2013-05-27 01:51:00,
2013-05-26 20:53:00,54.6,44.6,29.90,SE,142,5.0,8.0,69,0.00,,,0.00,0,Wunderground v.1.15,2013-05-27 01:53:00,
2013-05-26 20:54:00,54.7,44.7,29.90,SE,142,5.0,9.0,69,0.00,,,0.00,0,Wunderground v.1.15,2013-05-27 01:54:00,
2013-05-26 20:56:00,54.7,44.7,29.90,SE,130,2.0,10.0,69,0.00,,,0.00,0,Wunderground v.1.15,2013-05-27 01:56:00,
2013-05-26 20:58:00,54.7,44.7,29.90,ESE,117,0.0,10.0,69,0.00,,,0.00,0,Wunderground v.1.15,2013-05-27 01:58:00,
2013-05-26 20:59:00,54.6,44.6,29.90,ESE,117,2.0,10.0,69,0.00,,,0.00,0,Wunderground v.1.15,2013-05-27 01:59:00,
2013-05-26 21:01:00,54.6,44.6,29.90,ENE,62,8.0,13.0,69,0.00,,,0.00,0,Wunderground v.1.15,2013-05-27 02:01:00,
2013-05-26 21:03:00,54.7,44.7,29.90,SE,127,6.0,13.0,69,0.00,,,0.00,0,Wunderground v.1.15,2013-05-27 02:03:00,
2013-05-26 21:04:00,54.7,44.7,29.90,ESE,117,3.0,13.0,69,0.00,,,0.00,0,Wunderground v.1.15,2013-05-27 02:04:00,
2013-05-26 21:06:00,54.7,44.7,29.90,ENE,57,2.0,13.0,69,0.00,,,0.00,0,Wunderground v.1.15,2013-05-27 02:06:00,
2013-05-26 21:08:00,54.7,44.7,29.90,ENE,57,2.0,13.0,69,0.00,,,0.00,0,Wunderground v.1.15,2013-05-27 02:08:00,
2013-05-26 21:09:00,54.7,44.7,29.90,ENE,57,4.0,13.0,69,0.00,,,0.00,0,Wunderground v.1.15,2013-05-27 02:09:00,
2013-05-26 21:11:00,54.6,44.6,29.90,ENE,57,3.0,4.0,69,0.00,,,0.00,0,Wunderground v.1.15,2013-05-27 02:11:00,
2013-05-26 21:13:00,54.6,44.6,29.90,East,98,1.0,8.0,69,0.00,,,0.00,0,Wunderground v.1.15,2013-05-27 02:13:00,
2013-05-26 21:14:00,54.6,44.6,29.89,SE,138,3.0,9.0,69,0.00,,,0.00,0,Wunderground v.1.15,2013-05-27 02:14:00,
2013-05-26 21:16:00,54.6,44.6,29.89,SE,132,1.0,9.0,69,0.00,,,0.00,0,Wunderground v.1.15,2013-05-27 02:16:00,
2013-05-26 21:18:00,54.6,44.6,29.90,SE,132,3.0,9.0,69,0.00,,,0.00,0,Wunderground v.1.15,2013-05-27 02:18:00,
2013-05-26 21:19:00,54.6,44.6,29.90,ESE,122,2.0,9.0,69,0.00,,,0.00,0,Wunderground v.1.15,2013-05-27 02:19:00,
2013-05-26 21:21:00,54.6,44.6,29.90,ESE,117,1.0,4.0,69,0.00,,,0.00,0,Wunderground v.1.15,2013-05-27 02:21:00,
2013-05-26 21:23:00,54.6,44.6,29.89,ESE,102,1.0,7.0,69,0.00,,,0.00,0,Wunderground v.1.15,2013-05-27 02:23:00,
2013-05-26 21:24:00,54.6,44.6,29.89,ESE,102,1.0,7.0,69,0.00,,,0.00,0,Wunderground v.1.15,2013-05-27 02:24:00,
2013-05-26 21:26:00,54.6,44.6,29.89,East,97,2.0,7.0,69,0.00,,,0.00,0,Wunderground v.1.15,2013-05-27 02:26:00,
2013-05-26 21:28:00,54.6,44.6,29.89,ESE,120,3.0,15.0,69,0.00,,,0.00,0,Wunderground v.1.15,2013-05-27 02:28:00,
2013-05-26 21:29:00,54.7,44.7,29.89,ESE,121,4.0,4.0,69,0.00,,,0.00,0,Wunderground v.1.15,2013-05-27 02:29:00,
2013-05-26 21:31:00,54.7,44.7,29.89,East,97,4.0,6.0,69,0.00,,,0.00,0,Wunderground v.1.15,2013-05-27 02:31:00,
2013-05-26 21:34:00,54.7,44.7,29.90,East,79,4.0,14.0,69,0.00,,,0.00,0,Wunderground v.1.15,2013-05-27 02:34:00,
2013-05-26 21:35:00,54.8,44.4,29.89,ESE,121,0.0,14.0,68,0.00,,,0.00,0,Wunderground v.1.15,2013-05-27 02:35:00,
2013-05-26 21:36:00,54.8,44.4,29.89,East,97,3.0,14.0,68,0.00,,,0.00,0,Wunderground v.1.15,2013-05-27 02:36:00,
2013-05-26 21:39:00,54.8,44.4,29.89,SE,130,1.0,14.0,68,0.00,,,0.00,0,Wunderground v.1.15,2013-05-27 02:39:00,
2013-05-26 21:40:00,54.8,44.4,29.89,SE,131,4.0,4.0,68,0.00,,,0.00,0,Wunderground v.1.15,2013-05-27 02:40:00,
2013-05-26 21:41:00,54.8,44.4,29.89,SSE,149,4.0,9.0,68,0.00,,,0.00,0,Wunderground v.1.15,2013-05-27 02:41:00,
2013-05-26 21:44:00,54.9,44.5,29.90,NE,47,4.0,17.0,68,0.00,,,0.00,0,Wunderground v.1.15,2013-05-27 02:44:00,
2013-05-26 21:45:00,54.9,44.5,29.89,SE,125,7.0,17.0,68,0.00,,,0.00,0,Wunderground v.1.15,2013-05-27 02:45:00,
2013-05-26 21:46:00,54.9,44.5,29.89,ESE,119,3.0,17.0,68,0.00,,,0.00,0,Wunderground v.1.15,2013-05-27 02:46:00,
2013-05-26 21:49:00,54.9,44.5,29.90,SE,130,1.0,17.0,68,0.00,,,0.00,0,Wunderground v.1.15,2013-05-27 02:49:00,
2013-05-26 21:50:00,54.9,44.1,29.90,SE,127,1.0,3.0,67,0.00,,,0.00,0,Wunderground v.1.15,2013-05-27 02:50:00,
2013-05-26 21:51:00,54.9,44.1,29.90,NE,43,7.0,8.0,67,0.00,,,0.00,0,Wunderground v.1.15,2013-05-27 02:51:00,
2013-05-26 21:54:00,54.9,44.1,29.89,NE,52,0.0,8.0,67,0.00,,,0.00,0,Wunderground v.1.15,2013-05-27 02:54:00,
2013-05-26 21:55:00,54.9,44.1,29.89,NE,52,0.0,8.0,67,0.00,,,0.00,0,Wunderground v.1.15,2013-05-27 02:55:00,
2013-05-26 21:56:00,54.9,44.5,29.89,NE,52,1.0,8.0,68,0.00,,,0.00,0,Wunderground v.1.15,2013-05-27 02:56:00,
2013-05-26 21:59:00,54.9,44.5,29.89,East,82,1.0,8.0,68,0.00,,,0.00,0,Wunderground v.1.15,2013-05-27 02:59:00,
2013-05-26 22:00:00,54.8,44.4,29.89,SE,134,7.0,12.0,68,0.00,,,0.00,0,Wunderground v.1.15,2013-05-27 03:00:00,
2013-05-26 22:01:00,54.9,44.1,29.89,SE,129,1.0,12.0,67,0.00,,,0.00,0,Wunderground v.1.15,2013-05-27 03:01:00,
2013-05-26 22:04:00,54.9,44.5,29.90,ESE,121,2.0,12.0,68,0.00,,,0.00,0,Wunderground v.1.15,2013-05-27 03:04:00,
2013-05-26 22:05:00,54.9,44.5,29.89,ESE,121,2.0,12.0,68,0.00,,,0.00,0,Wunderground v.1.15,2013-05-27 03:05:00,
2013-05-26 22:06:00,54.9,44.1,29.90,SE,130,7.0,12.0,67,0.00,,,0.00,0,Wunderground v.1.15,2013-05-27 03:06:00,
2013-05-26 22:07:00,54.9,44.1,29.89,SE,130,2.0,12.0,67,0.00,,,0.00,0,Wunderground v.1.15,2013-05-27 03:07:00,
2013-05-26 22:09:00,54.9,44.5,29.89,ESE,109,0.0,12.0,68,0.00,,,0.00,0,Wunderground v.1.15,2013-05-27 03:09:00,
2013-05-26 22:10:00,54.9,44.5,29.89,ESE,109,1.0,3.0,68,0.00,,,0.00,0,Wunderground v.1.15,2013-05-27 03:10:00,
2013-05-26 22:11:00,54.8,44.4,29.88,SE,136,1.0,9.0,68,0.00,,,0.00,0,Wunderground v.1.15,2013-05-27 03:11:00,
2013-05-26 22:12:00,54.8,44.4,29.88,ENE,74,1.0,9.0,68,0.00,,,0.00,0,Wunderground v.1.15,2013-05-27 03:12:00,
2013-05-26 22:14:00,54.8,44.4,29.88,NE,47,2.0,9.0,68,0.00,,,0.00,0,Wunderground v.1.15,2013-05-27 03:14:00,
2013-05-26 22:15:00,54.8,44.4,29.88,SE,133,8.0,9.0,68,0.00,,,0.00,0,Wunderground v.1.15,2013-05-27 03:15:00,
2013-05-26 22:16:00,54.8,44.4,29.88,SE,124,1.0,9.0,68,0.00,,,0.00,0,Wunderground v.1.15,2013-05-27 03:16:00,
2013-05-26 22:17:00,54.8,44.0,29.88,East,95,7.0,9.0,67,0.00,,,0.00,0,Wunderground v.1.15,2013-05-27 03:17:00,
2013-05-26 22:19:00,54.8,44.4,29.88,East,96,3.0,3.0,68,0.00,,,0.00,0,Wunderground v.1.15,2013-05-27 03:19:00,
2013-05-26 22:20:00,54.8,44.4,29.87,ENE,74,3.0,9.0,68,0.00,,,0.00,0,Wunderground v.1.15,2013-05-27 03:20:00,
2013-05-26 22:21:00,54.8,44.0,29.87,ENE,77,1.0,9.0,67,0.00,,,0.00,0,Wunderground v.1.15,2013-05-27 03:21:00,
2013-05-26 22:22:00,54.8,44.4,29.87,East,101,5.0,9.0,68,0.00,,,0.00,0,Wunderground v.1.15,2013-05-27 03:22:00,
2013-05-26 22:25:00,54.8,44.0,29.87,East,91,0.0,9.0,67,0.00,,,0.00,0,Wunderground v.1.15,2013-05-27 03:25:00,
2013-05-26 22:26:00,54.8,44.0,29.88,SE,126,3.0,14.0,67,0.00,,,0.00,0,Wunderground v.1.15,2013-05-27 03:26:00,
2013-05-26 22:27:00,54.8,44.4,29.87,ENE,69,3.0,14.0,68,0.00,,,0.00,0,Wunderground v.1.15,2013-05-27 03:27:00,
2013-05-26 22:30:00,54.7,44.3,29.88,East,101,2.0,5.0,68,0.00,,,0.00,0,Wunderground v.1.15,2013-05-27 03:30:00,
2013-05-26 22:31:00,54.7,44.3,29.87,East,86,0.0,6.0,68,0.00,,,0.00,0,Wunderground v.1.15,2013-05-27 03:31:00,
2013-05-26 22:32:00,54.7,44.3,29.88,ENE,78,4.0,6.0,68,0.00,,,0.00,0,Wunderground v.1.15,2013-05-27 03:32:00,
2013-05-26 22:35:00,54.6,44.2,29.88,East,86,3.0,6.0,68,0.00,,,0.00,0,Wunderground v.1.15,2013-05-27 03:35:00,
2013-05-26 22:36:00,54.6,44.2,29.87,East,86,3.0,6.0,68,0.00,,,0.00,0,Wunderground v.1.15,2013-05-27 03:36:00,
2013-05-26 22:37:00,54.6,44.2,29.88,East,84,2.0,6.0,68,0.00,,,0.00,0,Wunderground v.1.15,2013-05-27 03:37:00,
2013-05-26 22:40:00,54.6,44.2,29.88,East,84,3.0,4.0,68,0.00,,,0.00,0,Wunderground v.1.15,2013-05-27 03:40:00,
2013-05-26 22:41:00,54.6,44.2,29.88,East,84,2.0,5.0,68,0.00,,,0.00,0,Wunderground v.1.15,2013-05-27 03:41:00,
2013-05-26 22:43:00,54.6,44.2,29.88,East,101,7.0,7.0,68,0.00,,,0.00,0,Wunderground v.1.15,2013-05-27 03:43:00,
2013-05-26 22:45:00,54.6,44.2,29.88,SSE,152,4.0,7.0,68,0.00,,,0.00,0,Wunderground v.1.15,2013-05-27 03:45:00,
2013-05-26 22:46:00,54.6,44.2,29.88,SSE,148,9.0,9.0,68,0.00,,,0.00,0,Wunderground v.1.15,2013-05-27 03:46:00,
2013-05-26 22:48:00,54.6,44.2,29.88,SE,139,1.0,9.0,68,0.00,,,0.00,0,Wunderground v.1.15,2013-05-27 03:48:00,
2013-05-26 22:50:00,54.7,44.3,29.87,SE,138,1.0,2.0,68,0.00,,,0.00,0,Wunderground v.1.15,2013-05-27 03:50:00,
2013-05-26 22:51:00,54.6,44.2,29.87,SE,138,1.0,2.0,68,0.00,,,0.00,0,Wunderground v.1.15,2013-05-27 03:51:00,
2013-05-26 22:53:00,54.6,44.2,29.88,SE,136,2.0,8.0,68,0.00,,,0.00,0,Wunderground v.1.15,2013-05-27 03:53:00,
2013-05-26 22:55:00,54.6,44.2,29.87,ENE,61,3.0,8.0,68,0.00,,,0.00,0,Wunderground v.1.15,2013-05-27 03:55:00,
2013-05-26 22:56:00,54.6,44.2,29.87,ENE,61,3.0,8.0,68,0.00,,,0.00,0,Wunderground v.1.15,2013-05-27 03:56:00,
2013-05-26 22:58:00,54.6,44.2,29.87,SE,131,0.0,11.0,68,0.00,,,0.00,0,Wunderground v.1.15,2013-05-27 03:58:00,
2013-05-26 23:00:00,54.6,44.2,29.86,ENE,64,5.0,7.0,68,0.00,,,0.00,0,Wunderground v.1.15,2013-05-27 04:00:00,
2013-05-26 23:01:00,54.6,44.2,29.86,ENE,64,1.0,7.0,68,0.00,,,0.00,0,Wunderground v.1.15,2013-05-27 04:01:00,
2013-05-26 23:06:00,54.6,44.2,29.85,SE,125,3.0,13.0,68,0.00,,,0.00,0,Wunderground v.1.15,2013-05-27 04:06:00,
2013-05-26 23:07:00,54.6,44.2,29.86,ESE,123,2.0,13.0,68,0.00,,,0.00,0,Wunderground v.1.15,2013-05-27 04:07:00,
2013-05-26 23:11:00,54.6,44.2,29.85,ENE,64,5.0,7.0,68,0.00,,,0.00,0,Wunderground v.1.15,2013-05-27 04:11:00,
2013-05-26 23:12:00,54.6,44.2,29.84,SE,133,2.0,14.0,68,0.00,,,0.00,0,Wunderground v.1.15,2013-05-27 04:12:00,
2013-05-26 23:16:00,54.6,44.2,29.84,ENE,70,1.0,14.0,68,0.00,,,0.00,0,Wunderground v.1.15,2013-05-27 04:16:00,
2013-05-26 23:17:00,54.6,44.2,29.84,SSE,148,3.0,14.0,68,0.00,,,0.00,0,Wunderground v.1.15,2013-05-27 04:17:00,
2013-05-26 23:21:00,54.6,44.2,29.85,SE,128,2.0,10.0,68,0.00,,,0.00,0,Wunderground v.1.15,2013-05-27 04:21:00,
2013-05-26 23:22:00,54.6,44.2,29.85,SE,125,0.0,10.0,68,0.00,,,0.00,0,Wunderground v.1.15,2013-05-27 04:22:00,
2013-05-26 23:26:00,54.5,44.5,29.85,SSE,151,2.0,10.0,69,0.00,,,0.00,0,Wunderground v.1.15,2013-05-27 04:26:00,
2013-05-26 23:27:00,54.5,44.2,29.85,SE,145,5.0,12.0,68,0.00,,,0.00,0,Wunderground v.1.15,2013-05-27 04:27:00,
2013-05-26 23:31:00,54.5,44.5,29.84,East,93,6.0,13.0,69,0.00,,,0.00,0,Wunderground v.1.15,2013-05-27 04:31:00,
2013-05-26 23:32:00,54.5,44.2,29.85,SE,140,1.0,13.0,68,0.00,,,0.00,0,Wunderground v.1.15,2013-05-27 04:32:00,
2013-05-26 23:36:00,54.4,44.4,29.84,SE,126,1.0,13.0,69,0.00,,,0.00,0,Wunderground v.1.15,2013-05-27 04:36:00,
2013-05-26 23:37:00,54.4,44.4,29.84,ESE,108,2.0,13.0,69,0.00,,,0.00,0,Wunderground v.1.15,2013-05-27 04:37:00,
2013-05-26 23:38:00,54.4,44.4,29.84,SE,134,10.0,13.0,69,0.00,,,0.00,0,Wunderground v.1.15,2013-05-27 04:38:00,
2013-05-26 23:41:00,54.4,44.4,29.84,SE,133,2.0,9.0,69,0.00,,,0.00,0,Wunderground v.1.15,2013-05-27 04:41:00,
2013-05-26 23:42:00,54.4,44.4,29.84,ENE,63,4.0,9.0,69,0.00,,,0.00,0,Wunderground v.1.15,2013-05-27 04:42:00,
2013-05-26 23:43:00,54.3,44.3,29.84,SE,135,8.0,16.0,69,0.00,,,0.00,0,Wunderground v.1.15,2013-05-27 04:43:00,
2013-05-26 23:46:00,54.3,44.7,29.83,SSE,160,6.0,16.0,70,0.00,,,0.00,0,Wunderground v.1.15,2013-05-27 04:46:00,
2013-05-26 23:47:00,54.3,44.7,29.83,SE,130,2.0,16.0,70,0.00,,,0.00,0,Wunderground v.1.15,2013-05-27 04:47:00,
2013-05-26 23:48:00,54.3,44.7,29.83,SE,127,3.0,16.0,70,0.00,,,0.00,0,Wunderground v.1.15,2013-05-27 04:48:00,
2013-05-26 23:51:00,54.2,44.6,29.83,SE,130,9.0,13.0,70,0.00,,,0.00,0,Wunderground v.1.15,2013-05-27 04:51:00,
2013-05-26 23:52:00,54.2,44.6,29.82,ESE,119,3.0,13.0,70,0.00,,,0.00,0,Wunderground v.1.15,2013-05-27 04:52:00,
2013-05-26 23:53:00,54.1,44.5,29.82,SE,139,2.0,13.0,70,0.00,,,0.00,0,Wunderground v.1.15,2013-05-27 04:53:00,
2013-05-26 23:56:00,54.1,44.5,29.81,East,81,5.0,13.0,70,0.00,,,0.00,0,Wunderground v.1.15,2013-05-27 04:56:00,
2013-05-26 23:57:00,54.1,44.5,29.81,East,94,1.0,13.0,70,0.00,,,0.00,0,Wunderground v.1.15,2013-05-27 04:57:00,
2013-05-26 23:58:00,54.0,44.4,29.82,NE,50,4.0,13.0,70,0.00,,,0.00,0,Wunderground v.1.15,2013-05-27 04:58:00,